GFSNGP_sfc_thetae_000.txt.gz
Theta_e
303 303 304 303 302 303 302 304 300 302 303 307 311 313 316 321 320 317 316 317 318 319 318 318 319 320 321 323 322 320 319 319 320 325 325 326 327 329 329 327 326 325 326 326
301 303 303 301 303 304 304 304 304 305 304 312 314 314 317 319 319 317 316 317 318 319 318 317 319 319 321 323 322 321 320 320 320 321 323 324 327 329 328 327 325 325 325 324
296 301 300 297 302 304 305 306 306 302 307 312 311 314 317 319 319 319 318 318 319 320 319 319 319 321 322 323 323 321 320 321 319 319 320 323 324 325 327 328 330 326 325 325
298 300 291 302 308 307 305 306 308 308 310 312 313 316 318 321 321 321 320 320 320 321 322 321 321 322 323 323 323 320 320 321 320 317 318 321 323 324 328 330 330 329 328 327
298 298 299 303 306 305 303 303 309 309 310 311 314 317 316 321 323 324 325 324 323 324 324 323 321 323 322 322 322 320 319 320 320 318 317 320 321 324 328 329 329 328 327 327
300 296 292 303 308 312 311 300 311 312 312 312 314 309 312 322 324 325 327 327 326 325 325 324 323 323 323 322 321 320 319 320 321 319 318 319 322 325 327 327 325 322 324 326
299 299 301 309 311 314 301 303 314 315 316 316 314 316 320 322 325 326 328 327 328 327 325 326 324 323 322 322 321 321 321 320 322 322 320 323 325 326 326 325 323 323 322 324
301 298 295 313 312 305 312 322 318 319 320 319 321 322 322 324 325 325 327 326 326 325 325 327 325 323 322 322 324 323 321 320 322 324 319 321 326 326 325 324 323 322 321 320
301 301 315 317 315 319 319 317 318 321 322 323 322 322 323 324 324 325 326 326 325 326 326 326 326 324 322 324 324 323 322 321 323 324 321 322 324 324 321 323 318 318 317 316
302 306 309 312 317 319 322 320 321 323 323 324 322 323 323 323 324 324 325 326 326 325 324 325 326 326 327 325 324 322 323 322 324 324 322 321 322 322 320 319 318 317 316 316
301 306 308 309 312 317 320 322 320 321 322 321 322 321 323 323 324 324 325 326 327 325 325 325 326 326 327 325 324 324 324 324 324 324 323 321 321 320 319 325 317 318 318 318
297 307 308 309 313 314 319 319 320 320 321 322 323 322 322 322 325 326 326 327 327 326 326 326 326 326 326 325 325 328 327 324 323 322 323 321 319 318 303 302 301 299 300 310
306 312 312 316 318 318 317 320 321 322 322 322 323 323 323 322 325 321 327 327 327 326 326 327 326 325 326 326 326 327 329 327 323 319 322 320 319 317 316 310 297 296 295 296
311 310 309 312 312 314 318 320 319 322 322 322 321 323 324 324 324 324 325 326 327 327 327 327 326 325 327 326 326 326 330 310 324 323 322 321 320 319 318 316 315 315 298 299
307 309 310 314 316 318 318 319 319 320 320 320 322 323 324 324 324 325 326 327 329 328 326 326 325 326 327 326 326 325 326 324 325 323 323 320 322 321 319 319 318 316 316 304
306 306 307 310 313 316 318 318 316 317 319 319 320 321 322 324 325 326 326 326 327 327 327 326 325 326 327 327 326 326 326 312 316 323 322 322 322 321 321 320 320 320 324 322
304 304 306 308 312 316 317 318 318 318 318 319 322 324 325 325 325 326 327 330 329 329 330 329 327 327 326 327 327 325 325 325 310 322 322 322 322 322 322 321 321 321 322 319
310 310 313 314 316 316 317 318 318 319 320 323 325 325 323 323 324 325 327 329 330 330 331 331 331 328 326 325 326 326 325 325 323 322 322 323 322 323 323 323 322 323 321 314
311 312 314 316 317 318 320 319 320 322 324 324 323 323 325 325 325 326 326 326 327 328 329 328 310 314 330 322 319 326 324 324 323 323 323 313 322 323 323 323 324 321 318 315
311 313 315 316 317 319 320 322 324 323 324 325 326 325 325 324 325 324 325 324 325 327 328 328 326 328 329 323 304 325 324 324 323 322 321 322 322 322 324 313 320 317 316 316
309 313 312 313 315 317 319 319 318 320 322 324 322 322 324 324 325 326 325 324 324 321 323 312 328 327 326 318 316 324 323 323 323 323 322 322 322 322 321 318 316 316 314 313
306 309 310 312 313 314 316 318 318 319 319 318 318 319 321 322 322 322 324 324 324 294 321 326 326 301 317 297 323 323 322 323 323 322 320 319 317 316 317 315 313 311 309 304
303 308 309 308 309 309 309 312 314 316 316 318 318 320 320 321 322 321 320 321 326 309 323 320 296 294 293 325 323 323 322 321 320 319 317 316 316 314 311 309 308 304 299 298
303 304 304 305 307 308 307 309 310 314 316 318 319 320 319 318 318 320 317 298 296 304 319 314 306 294 300 324 323 322 321 319 319 317 315 304 312 310 308 303 302 302 301 300
304 305 306 305 304 305 308 309 310 313 315 316 317 317 318 319 318 316 319 315 296 309 318 290 292 295 322 323 322 321 320 320 319 317 315 313 311 307 303 304 304 303 303 302
304 303 303 304 304 305 307 309 309 311 313 313 313 316 317 317 315 315 314 309 317 305 319 320 322 320 316 319 319 319 318 314 314 314 312 311 309 307 307 306 303 302 301 300
304 300 305 304 305 305 306 306 308 307 307 310 309 312 314 314 312 312 303 314 315 314 315 315 315 311 315 314 313 312 314 315 307 313 313 311 309 307 305 303 302 302 301 300

GFSNGP_sfc_thetae_003.txt.gz
Theta_e
306 306 306 305 304 304 303 304 301 304 305 309 312 313 316 319 321 319 318 318 319 320 320 317 320 320 322 324 322 319 318 320 325 326 328 332 330 330 330 330 330 332 332 331
302 305 305 303 305 305 305 305 305 306 306 313 315 315 316 319 319 319 318 318 320 321 320 318 319 320 321 323 321 319 319 318 323 324 325 328 330 329 329 327 326 327 327 326
298 303 303 300 304 305 305 306 307 303 309 313 312 313 315 317 319 320 320 320 320 321 321 320 320 321 321 323 322 320 320 319 319 323 323 325 326 325 326 329 330 328 327 327
299 302 293 303 310 309 307 308 309 309 311 313 313 316 317 318 320 321 322 322 322 323 323 322 321 322 323 324 322 319 320 319 318 319 322 324 325 326 330 331 331 329 326 326
299 299 301 303 306 306 305 305 311 310 312 313 315 316 316 319 323 323 324 326 324 325 326 324 322 323 323 323 322 319 319 320 318 317 320 323 324 328 332 331 332 329 327 326
301 296 293 303 309 312 311 301 312 312 312 313 314 308 312 320 321 324 326 328 327 327 327 326 325 325 323 322 322 319 320 321 320 318 320 322 327 330 332 331 329 326 326 327
298 299 301 309 311 313 300 304 314 314 314 315 312 314 320 322 322 326 326 327 329 328 328 330 328 328 323 322 321 321 321 321 321 321 323 327 332 334 331 329 328 329 325 327
300 297 295 312 311 305 313 316 317 316 316 316 318 319 320 322 324 326 325 327 328 328 327 332 327 328 324 325 324 323 321 321 321 323 321 323 331 330 328 330 329 327 326 324
303 303 314 314 314 319 319 318 318 319 320 320 320 320 321 322 324 325 326 327 328 329 329 330 330 327 325 328 324 323 322 322 323 323 321 324 328 329 323 328 321 321 319 319
306 309 311 314 316 319 319 318 320 320 322 322 321 322 323 324 325 325 327 328 328 328 328 329 329 329 328 326 325 323 323 325 326 325 322 326 324 325 322 321 320 318 317 317
305 308 311 313 316 317 318 319 323 323 322 322 323 323 323 323 325 326 327 328 328 328 328 328 330 328 328 326 326 326 328 326 327 324 325 325 325 323 321 326 320 319 320 318
301 309 309 311 315 316 317 319 321 320 320 322 323 322 323 323 326 327 327 328 328 329 328 329 329 329 328 327 327 330 329 325 323 322 323 320 321 321 304 304 302 299 298 309
305 314 314 316 318 318 317 319 321 322 321 321 322 323 323 323 327 322 327 327 327 328 328 329 329 329 330 329 328 329 330 328 324 319 322 320 319 318 317 310 298 298 295 297
311 311 310 312 312 315 317 318 318 322 323 323 323 322 322 323 324 325 325 326 328 328 328 329 329 329 330 330 329 330 332 310 326 325 323 322 321 319 318 317 316 317 298 305
305 311 311 312 314 315 318 318 318 319 320 321 322 321 322 323 323 324 325 326 328 328 327 328 328 329 330 330 331 331 332 327 326 326 324 321 323 321 319 318 317 317 318 302
305 309 310 309 308 312 314 314 314 315 320 321 320 321 321 323 324 325 326 328 328 328 328 328 328 330 330 331 332 330 332 317 318 326 325 324 323 321 320 321 321 319 318 316
302 302 306 306 307 307 311 313 315 315 319 320 320 321 321 322 323 325 326 328 329 330 331 329 329 330 330 331 334 329 328 329 312 325 325 324 324 324 323 322 321 320 321 317
307 308 309 309 309 309 309 311 314 316 318 320 319 320 322 323 324 324 327 329 331 330 332 334 333 331 329 330 331 329 329 328 328 326 327 325 325 324 324 322 322 321 319 308
308 308 309 310 310 312 315 317 317 318 318 320 318 319 324 325 326 327 329 330 330 329 333 335 310 321 332 324 323 329 328 328 327 328 328 318 324 325 324 324 323 323 321 317
307 310 311 311 312 312 313 316 320 320 320 319 321 323 324 324 326 327 328 327 328 333 336 334 331 332 333 328 309 328 328 327 327 327 326 325 325 325 323 310 321 325 323 321
310 311 312 312 313 314 315 318 319 320 321 323 324 324 325 327 327 327 327 325 330 328 331 313 330 331 332 324 323 326 328 328 327 327 325 324 325 324 325 324 324 321 320 317
309 311 312 314 314 317 322 324 325 325 323 320 324 326 327 328 328 329 331 329 329 296 325 331 331 304 321 300 327 325 326 327 327 327 325 324 324 324 324 323 319 320 318 316
302 308 312 313 316 318 319 321 321 321 320 321 321 323 325 326 327 326 325 329 328 310 326 324 299 294 297 326 326 326 325 325 325 324 325 324 325 323 323 320 317 314 313 312
303 305 308 312 314 315 314 317 319 320 320 321 320 318 321 322 323 324 321 303 299 310 321 317 310 298 294 327 326 326 325 325 324 323 322 305 317 318 315 313 313 310 306 301
302 303 305 308 310 311 313 314 314 316 317 317 318 319 321 323 322 323 322 320 297 310 322 295 296 297 325 326 324 324 323 323 321 321 319 318 315 310 310 308 305 303 302 301
303 303 304 306 308 311 311 312 311 312 314 314 315 319 322 320 320 321 322 315 323 310 323 322 325 325 325 325 324 324 322 319 319 318 316 315 314 310 309 307 303 301 299 298
304 300 305 305 306 307 309 309 309 309 310 313 313 316 318 321 317 316 307 320 320 322 323 324 324 316 323 323 322 321 320 320 311 317 315 312 310 308 306 303 302 301 300 300

GFSNGP_sfc_thetae_006.txt.gz
Theta_e
305 306 306 305 304 304 303 305 300 303 304 308 312 313 315 320 320 318 317 318 320 320 320 318 320 322 322 324 324 322 321 325 328 333 336 334 333 333 332 332 332 331 332 332
302 305 306 303 305 305 305 304 304 305 305 313 316 316 316 319 319 317 318 318 319 321 321 318 320 320 322 324 322 321 321 322 326 327 331 333 333 332 331 330 331 330 325 326
300 304 303 300 304 305 306 307 306 302 308 313 313 314 316 320 320 319 319 320 320 321 322 320 321 323 323 324 322 320 320 320 323 325 326 330 330 330 329 331 333 328 326 325
300 303 293 304 311 309 307 308 309 309 311 313 314 316 316 319 321 321 322 322 322 323 324 323 323 323 324 325 321 318 319 318 321 322 323 327 328 329 331 332 331 330 326 325
299 298 301 303 307 307 307 307 312 309 311 312 315 316 317 319 320 323 325 325 324 326 327 324 323 323 324 323 321 318 318 318 318 320 323 324 326 329 332 333 332 330 328 326
301 295 293 304 309 311 311 302 314 314 313 313 314 307 311 320 321 325 326 328 327 327 327 325 324 325 324 323 321 318 319 320 318 319 323 324 329 330 332 334 332 328 328 328
299 299 300 309 311 313 300 304 315 316 316 316 314 316 325 326 324 328 327 328 330 328 326 325 326 325 323 323 322 321 321 321 321 320 324 327 332 332 332 332 330 331 328 329
301 298 294 311 310 305 316 326 321 318 319 318 320 322 323 323 325 326 326 327 329 327 327 327 326 325 323 323 325 323 321 321 321 324 320 326 330 330 330 330 332 328 329 326
303 303 319 317 319 323 323 321 318 320 319 320 319 319 320 323 326 327 327 327 328 328 329 328 326 325 323 326 326 324 322 322 324 323 322 326 328 328 326 328 326 322 323 321
302 309 311 314 318 321 320 320 321 321 322 320 319 320 320 321 325 325 327 327 329 328 329 327 327 326 326 327 326 324 324 325 325 322 322 325 326 327 323 323 322 321 319 318
302 308 312 314 315 317 318 320 321 321 320 322 322 322 322 322 325 325 326 328 329 328 330 329 329 327 327 327 326 324 325 325 325 323 321 324 325 325 324 325 320 321 320 319
299 304 303 313 316 315 319 318 321 320 321 323 323 323 324 324 326 326 326 329 330 331 332 331 331 329 328 328 326 326 325 324 323 323 321 323 322 324 302 306 303 299 300 313
300 306 306 308 317 318 318 320 321 319 323 323 324 324 324 323 327 323 326 328 329 329 329 331 330 330 330 328 328 326 326 325 322 320 322 320 321 321 318 308 297 296 299 300
304 302 304 309 312 315 317 320 318 320 322 322 321 325 324 325 325 325 325 327 329 329 329 330 330 330 331 329 328 327 328 311 323 321 323 321 320 320 321 318 315 313 299 304
302 305 305 308 312 314 317 318 318 317 319 320 322 322 323 322 323 323 324 326 330 328 326 328 327 330 332 331 329 328 327 325 324 324 322 321 321 320 318 319 317 317 311 303
303 304 305 304 309 311 313 315 314 316 318 321 321 320 322 324 324 323 324 325 326 328 328 328 328 331 332 331 331 330 328 314 317 324 322 322 321 320 318 317 318 316 316 312
301 302 303 305 307 309 309 310 313 314 315 317 322 322 321 321 322 324 324 328 328 328 331 332 331 331 331 332 333 330 328 326 312 323 323 322 322 321 320 319 317 317 316 313
306 306 307 308 308 308 308 309 309 313 315 316 319 321 321 321 323 325 326 331 330 331 338 338 332 334 332 333 333 329 329 329 324 323 324 322 323 322 322 320 320 318 317 310
305 306 307 308 309 309 309 310 311 311 312 316 318 319 320 323 325 328 330 329 330 331 335 337 314 328 337 326 326 330 329 329 328 325 325 313 321 322 321 323 322 321 316 306
304 305 307 308 308 308 309 311 313 315 317 319 319 320 321 321 327 328 331 329 333 334 339 336 333 334 337 332 311 329 329 328 328 328 325 324 325 323 324 311 323 319 313 310
306 307 306 306 307 309 309 312 313 314 318 320 321 320 321 323 326 328 330 327 335 329 333 316 332 332 333 326 325 326 327 331 329 331 327 324 325 325 328 323 322 320 316 314
308 308 309 308 308 311 313 313 314 315 316 317 319 323 319 326 327 327 329 327 329 297 325 330 330 298 316 300 330 329 327 326 328 329 328 326 326 326 325 326 322 319 319 314
304 305 308 311 312 314 315 315 314 318 317 323 322 322 321 319 327 326 325 327 327 308 328 324 296 292 295 325 325 326 328 328 327 327 328 328 326 325 325 321 321 318 315 313
302 304 308 314 313 315 316 316 318 321 321 322 320 321 319 318 321 321 321 306 299 308 318 314 305 292 288 327 327 326 326 327 326 325 320 309 320 321 319 317 315 314 309 305
303 304 304 306 310 314 313 314 315 318 319 320 321 321 321 321 319 321 321 319 298 311 322 297 296 294 316 326 325 326 325 325 325 325 322 321 318 316 315 313 309 305 304 302
303 303 304 305 307 309 310 312 313 315 315 315 318 320 317 319 318 319 320 315 323 310 324 323 324 324 326 324 324 323 323 319 319 320 318 317 316 314 309 307 304 304 301 300
305 302 305 305 307 307 307 306 307 308 309 312 311 316 319 318 314 316 310 322 323 324 324 325 323 317 324 324 322 321 321 321 312 319 318 317 313 312 308 304 304 303 300 299

GFSNGP_sfc_thetae_009.txt.gz
Theta_e
298 300 302 301 301 301 299 298 295 297 298 302 305 306 311 312 311 312 310 311 312 312 311 310 311 314 317 317 314 315 318 316 321 322 322 323 325 325 326 327 326 326 325 329
296 301 300 301 302 302 302 301 299 300 299 305 309 308 311 312 312 311 312 313 314 314 312 311 312 313 316 316 313 314 318 317 320 320 324 323 322 324 324 324 326 321 319 320
291 298 299 294 301 302 302 302 301 296 299 305 306 307 309 311 312 312 313 314 314 315 313 311 313 314 315 316 312 313 318 319 319 319 326 322 321 320 319 321 318 318 318 316
292 294 287 298 305 307 303 304 303 302 304 306 306 309 313 316 314 313 314 314 315 316 314 313 315 314 316 315 312 312 315 318 318 318 322 321 320 318 318 319 317 315 315 312
290 290 297 300 304 303 300 300 305 303 306 308 308 308 309 317 317 316 316 316 317 318 316 315 315 316 317 314 311 311 312 314 317 317 318 320 319 317 319 318 317 315 313 310
292 287 287 298 305 308 306 297 306 306 304 305 306 301 303 311 318 317 318 318 317 319 316 315 316 317 316 314 311 310 312 313 316 316 317 317 320 319 320 319 319 319 315 310
293 289 296 305 308 307 294 296 307 307 306 306 303 305 309 314 315 319 320 319 320 320 316 315 317 317 315 315 312 313 313 314 313 315 317 317 321 322 320 321 319 317 317 313
292 291 289 306 305 297 301 305 309 308 309 308 310 312 313 315 316 317 319 320 321 319 316 317 318 317 315 315 315 315 314 314 312 314 320 323 322 321 321 320 318 317 315 314
294 297 304 308 308 312 312 308 308 311 312 312 312 312 313 313 314 318 319 320 321 319 317 317 318 317 316 316 318 316 313 312 313 315 316 322 321 320 318 317 318 315 316 313
297 302 301 307 307 308 313 310 312 313 314 312 311 311 311 316 317 319 320 321 321 320 318 316 318 318 318 320 320 317 313 313 315 313 316 321 322 322 319 316 315 313 314 312
297 299 302 303 305 307 315 312 316 314 314 314 312 312 312 315 317 318 321 321 322 322 319 318 319 318 319 321 320 316 315 316 314 313 318 319 321 320 319 317 315 314 312 313
293 298 298 298 301 308 311 312 315 316 315 315 314 313 313 315 318 317 318 321 322 323 322 321 320 320 320 321 321 317 316 317 315 313 317 318 317 316 299 303 303 303 304 310
296 302 301 301 305 307 304 312 316 317 318 316 316 317 317 319 318 318 320 322 324 324 324 323 321 321 322 322 321 319 317 317 316 313 317 316 317 317 313 302 296 296 298 299
302 301 299 302 301 304 304 314 314 317 319 317 318 319 318 319 318 319 319 323 324 326 326 325 324 323 324 322 322 319 318 307 317 316 314 316 316 316 316 311 305 304 297 297
300 303 303 304 303 303 304 308 312 312 315 317 319 319 320 318 318 319 320 322 324 323 324 326 326 325 326 324 322 320 321 317 317 317 317 313 316 315 314 314 311 309 301 296
299 301 303 301 302 303 304 305 308 310 310 317 319 320 319 319 319 318 318 319 318 319 323 324 325 327 328 325 322 322 321 311 313 317 315 316 314 314 314 311 312 311 307 304
295 298 299 301 302 303 304 307 308 310 311 313 319 321 320 317 318 317 317 319 321 322 322 325 326 327 328 326 323 323 322 317 308 317 316 316 316 314 314 313 310 311 310 304
300 301 303 302 302 303 306 308 308 309 310 310 319 319 318 318 316 317 317 321 321 326 327 325 325 330 327 327 326 324 323 321 318 318 318 317 316 317 315 313 312 311 312 307
300 301 304 305 305 305 306 306 308 309 310 312 313 316 317 318 316 319 319 322 320 321 325 326 315 322 325 313 321 325 322 322 319 319 318 309 312 315 315 315 315 314 313 309
304 302 303 304 307 306 306 307 308 308 308 310 313 316 315 315 314 320 320 319 323 322 326 323 326 325 326 317 310 320 320 322 320 319 318 316 317 317 315 307 313 313 311 308
303 306 307 303 305 306 307 307 307 306 308 310 310 312 313 316 316 320 321 322 325 324 322 317 325 324 324 318 319 318 318 320 320 320 319 318 317 317 318 317 312 309 306 305
301 303 305 306 307 307 306 306 307 309 309 309 310 311 315 317 318 317 321 320 321 299 320 324 319 301 312 301 321 320 318 319 318 320 319 319 318 316 317 314 312 309 307 308
301 303 304 305 306 307 310 310 310 311 311 310 312 318 317 317 317 316 313 314 312 304 315 309 291 288 290 316 319 318 319 319 318 318 318 318 318 318 317 315 313 310 308 308
301 302 304 307 310 308 307 309 315 317 318 318 318 319 317 313 314 317 317 306 302 305 309 303 296 289 295 317 317 318 318 318 316 316 313 303 314 317 315 312 311 310 308 306
303 304 304 304 305 306 308 312 313 313 315 314 316 317 317 316 314 315 318 316 301 313 319 301 293 294 316 319 318 318 318 317 316 316 314 312 310 309 309 310 310 307 301 300
303 303 304 305 304 306 309 309 307 310 313 310 313 316 316 317 317 317 317 312 318 307 319 319 318 317 318 318 317 316 314 313 316 314 312 311 308 306 304 302 302 301 300 300
304 299 304 305 306 306 305 305 307 306 308 311 312 313 313 313 312 313 306 317 317 318 318 316 316 312 318 317 315 314 314 312 307 312 310 308 304 303 302 302 300 299 299 298

GFSNGP_sfc_thetae_012.txt.gz
Theta_e
294 296 297 296 296 298 297 296 294 295 296 299 307 308 310 310 309 309 310 310 311 311 309 309 311 313 315 315 312 315 314 319 318 318 321 323 323 324 323 323 324 325 327 327
291 296 296 294 297 299 300 298 297 298 297 303 311 312 310 310 310 309 310 311 312 313 310 309 312 313 315 314 312 315 314 318 320 319 321 322 322 322 324 323 319 322 324 324
288 295 294 290 295 298 300 301 299 295 298 302 303 309 310 309 310 310 311 312 312 313 311 311 311 314 314 313 313 315 314 318 319 321 321 320 321 321 320 317 316 315 317 319
287 291 284 295 301 302 301 302 302 299 301 304 306 308 312 313 311 311 312 313 313 314 312 311 311 313 314 312 314 316 315 317 317 320 319 318 317 317 317 314 314 311 312 312
286 288 292 295 300 300 298 297 302 302 302 303 305 307 307 313 314 313 313 314 314 316 313 312 312 313 315 310 313 316 315 316 316 320 319 317 315 316 315 313 311 311 310 309
289 284 284 294 302 305 303 295 303 303 302 302 303 301 304 313 315 314 314 315 315 315 313 312 313 314 313 309 310 314 315 316 315 318 318 317 314 315 315 313 312 311 309 308
288 287 291 300 304 306 294 296 303 304 304 303 302 305 307 314 314 315 315 314 315 315 312 313 313 315 312 310 308 312 315 316 315 315 316 317 315 316 316 315 313 310 309 307
290 287 287 303 304 298 302 306 305 305 304 304 305 306 307 312 315 315 314 314 316 315 313 313 314 315 312 310 310 311 313 314 314 314 317 319 317 316 317 315 313 311 309 306
293 293 298 302 300 303 307 307 309 306 306 308 305 307 310 310 313 316 315 315 317 315 312 313 315 315 313 312 311 311 311 311 311 314 316 319 318 316 315 315 313 313 312 309
292 298 296 300 300 302 303 303 312 314 310 308 308 308 309 310 313 316 317 316 317 315 312 312 314 315 315 315 314 312 310 309 309 314 314 319 320 319 318 315 314 313 313 311
294 296 297 298 300 301 302 303 311 314 314 310 309 308 310 311 314 317 317 318 318 315 314 314 315 315 315 317 316 313 310 310 310 313 316 318 320 320 319 318 317 315 315 314
289 295 294 296 300 302 301 301 304 312 314 315 314 309 310 314 316 318 318 318 317 317 315 315 315 315 316 319 317 314 311 312 311 311 316 318 317 313 297 306 302 303 302 309
296 299 298 299 301 303 302 302 304 311 312 313 316 316 310 315 315 317 319 319 319 318 317 316 316 316 318 319 318 315 314 313 311 311 315 316 316 316 312 303 297 299 299 300
303 301 297 299 298 301 303 304 306 311 311 312 316 318 315 314 314 318 319 320 321 320 318 318 317 317 319 320 319 316 315 306 312 312 314 315 316 316 316 313 310 307 296 297
301 302 301 303 301 301 304 304 304 306 309 308 316 317 318 316 314 317 321 322 322 322 321 320 318 318 320 320 319 317 316 315 314 313 315 313 316 316 315 314 313 307 300 295
298 301 302 301 300 302 302 304 305 306 308 307 312 317 319 319 321 317 318 323 321 320 322 322 320 321 321 320 319 318 317 308 311 314 313 314 314 314 314 313 311 310 306 306
296 296 298 298 299 301 302 305 306 308 310 307 310 314 317 319 320 319 318 319 322 323 324 324 323 324 323 321 319 319 319 312 305 315 313 314 314 314 314 313 312 310 310 307
300 299 300 301 301 301 302 306 307 307 309 310 311 313 314 317 318 319 319 318 322 322 322 322 323 325 326 323 320 320 319 316 314 315 316 314 313 314 314 313 312 312 311 307
299 302 301 302 303 303 303 305 308 306 306 311 311 311 311 315 317 317 319 317 323 321 320 321 307 317 324 321 317 321 320 318 316 316 315 307 310 314 313 313 312 311 311 309
299 301 305 307 305 302 304 305 307 305 305 307 310 311 310 311 313 313 314 316 321 321 323 320 322 320 316 312 306 322 320 319 317 317 316 313 313 314 314 305 312 311 309 310
299 300 301 304 305 304 304 303 305 305 307 307 308 309 310 310 311 313 315 317 321 317 320 313 322 322 322 312 314 317 319 319 317 316 315 314 314 314 314 313 312 312 309 308
300 299 301 303 304 305 308 308 304 305 307 309 309 308 309 310 313 316 314 315 310 294 315 314 310 298 313 303 320 315 317 319 317 316 315 315 315 314 316 316 314 310 307 305
300 301 301 301 302 304 306 307 309 313 314 314 312 311 316 316 317 317 313 313 310 301 310 306 291 288 291 316 317 316 317 317 316 317 317 316 316 315 316 315 312 307 304 304
302 303 302 303 304 305 304 305 307 309 312 316 317 314 316 314 314 314 311 301 295 305 311 307 300 292 294 314 315 315 315 314 313 312 311 301 314 314 314 309 307 306 304 302
303 303 305 304 305 305 305 306 307 309 312 313 316 317 316 315 314 315 314 311 298 308 313 293 293 295 316 318 317 316 314 314 313 312 311 310 308 308 309 307 307 306 301 300
302 302 304 305 305 306 307 307 307 307 308 311 311 312 315 315 314 313 316 307 313 302 314 313 314 316 317 318 317 315 314 312 312 309 307 305 303 302 301 300 299 299 298 297
303 299 303 304 306 306 305 305 306 307 307 311 310 311 312 313 312 311 303 312 312 312 311 311 311 308 314 316 315 314 314 312 305 308 304 303 302 301 300 299 298 298 298 298

GFSNGP_sfc_thetae_015.txt.gz
Theta_e
293 293 293 293 293 293 292 293 291 293 294 299 303 305 306 307 306 307 308 309 310 309 308 308 308 310 313 313 312 313 317 317 317 318 320 320 320 320 321 322 322 323 323 323
290 294 293 291 293 294 295 295 295 295 294 302 308 308 307 308 308 308 309 310 311 311 309 309 310 311 312 313 312 313 317 317 318 318 321 320 319 320 320 318 321 325 323 325
284 293 291 287 292 293 295 298 298 293 296 300 304 307 308 307 308 309 310 311 311 311 310 310 311 312 311 312 312 313 316 318 318 319 320 320 320 319 317 314 316 320 322 322
282 288 280 292 297 297 296 298 299 298 299 303 306 310 311 311 310 310 311 312 312 313 311 310 312 312 312 311 314 313 314 318 318 320 319 319 319 317 313 311 312 314 317 318
282 283 289 293 297 295 293 294 300 301 299 303 307 309 305 312 313 312 312 313 313 314 313 310 310 312 312 310 313 313 314 316 316 320 316 316 316 314 311 310 309 311 312 315
285 280 281 291 299 301 300 292 301 300 300 301 304 302 306 310 313 312 312 313 313 314 313 310 310 312 311 310 313 313 314 316 315 319 316 314 314 313 311 310 310 309 310 313
283 282 290 296 300 304 291 291 302 306 302 300 303 308 310 312 313 313 312 312 313 313 311 310 311 313 311 309 312 314 316 315 314 317 316 315 314 313 311 310 309 307 307 306
286 285 285 299 298 293 296 300 302 307 308 301 306 303 306 312 313 312 310 311 313 312 311 311 312 313 311 308 312 315 315 314 313 315 319 316 314 314 312 310 308 306 305 304
290 292 297 299 296 300 300 298 299 300 310 309 303 303 305 310 312 312 312 313 314 313 310 310 312 314 311 310 309 313 313 313 310 313 315 316 313 313 312 310 308 307 305 304
291 297 296 298 299 299 300 299 301 303 311 311 303 304 306 311 312 312 313 313 314 312 310 309 312 314 313 310 310 311 310 311 310 312 311 315 316 315 315 312 310 311 309 306
291 296 296 299 297 298 300 301 302 304 310 312 308 304 308 309 312 314 314 314 314 312 311 311 313 313 313 311 310 309 309 309 309 312 312 315 316 315 316 316 314 314 313 311
288 295 295 296 298 300 299 299 302 303 308 311 313 311 306 309 313 315 314 314 314 313 312 312 313 313 314 313 312 310 308 307 308 311 312 315 315 311 298 302 301 300 302 309
294 299 300 300 301 304 300 300 303 304 308 309 314 315 312 308 312 314 315 315 315 313 314 313 313 313 315 316 313 311 310 309 308 309 313 314 315 315 312 306 298 297 297 299
300 299 299 299 297 302 302 302 305 306 308 309 312 316 316 310 312 315 315 316 316 315 315 314 314 313 315 317 315 313 311 303 309 310 312 314 315 315 315 313 312 309 297 299
298 301 300 300 301 302 303 303 303 304 306 308 311 313 316 316 313 313 315 316 317 316 315 315 314 314 317 317 316 314 313 311 311 310 312 312 315 315 314 313 313 309 300 295
300 301 300 300 300 301 302 302 302 303 307 306 309 312 316 318 317 317 317 318 315 315 316 316 315 316 317 317 316 315 314 306 307 311 311 312 313 313 313 312 311 311 307 309
294 295 298 299 299 299 300 303 303 305 306 307 309 312 316 316 317 316 317 318 317 318 318 317 317 318 318 318 317 316 315 310 303 310 312 312 313 313 313 313 311 310 310 307
297 298 299 301 300 299 300 302 303 305 304 309 311 310 311 311 311 313 316 317 317 317 319 320 320 319 319 318 317 317 316 313 312 312 312 312 312 313 313 313 312 311 310 305
298 298 300 301 303 300 300 301 302 305 304 306 311 310 309 309 310 311 313 316 316 315 316 321 310 310 319 315 314 318 316 313 313 314 313 304 307 312 312 312 312 312 311 306
299 299 300 301 303 305 302 302 306 305 304 305 307 310 307 308 310 313 314 314 316 317 319 320 317 319 321 314 306 318 317 315 314 314 313 311 311 311 312 304 311 311 311 310
300 300 300 300 302 305 306 304 303 303 304 306 305 307 307 306 309 312 314 313 316 318 318 308 315 319 316 309 311 317 317 316 315 314 313 312 311 312 312 311 310 311 309 310
301 301 300 300 300 301 304 305 306 305 304 305 306 307 307 306 308 311 315 314 315 294 308 318 315 305 308 297 317 316 317 317 316 315 314 313 313 311 312 312 311 311 310 309
302 302 303 301 300 301 303 304 305 306 308 308 307 307 309 309 311 312 310 314 316 306 311 313 300 290 294 317 315 316 317 317 316 315 315 314 314 314 314 314 313 312 310 305
302 303 303 305 303 301 301 303 305 305 307 308 310 311 313 310 311 314 313 300 293 297 311 310 305 293 301 314 314 314 314 314 314 314 313 302 312 312 312 311 309 306 308 305
302 302 303 303 304 303 304 305 305 305 306 306 306 309 311 313 310 313 314 312 292 301 313 300 295 298 315 314 313 312 312 311 311 311 310 310 309 310 309 308 306 304 301 301
301 301 302 304 304 305 306 307 305 304 305 305 307 309 312 315 313 313 315 306 314 302 313 315 315 316 316 315 314 312 310 307 308 307 305 304 303 302 302 301 300 299 298 297
301 298 302 302 304 304 304 303 304 304 305 304 306 309 312 312 310 310 306 314 313 311 311 310 310 306 313 314 313 312 311 308 302 305 304 302 300 299 299 298 297 297 296 296

GFSNGP_sfc_thetae_021.txt.gz
Theta_e
290 291 292 293 294 294 293 294 291 293 295 301 304 309 312 313 314 314 315 316 316 317 319 320 321 322 323 324 324 326 327 329 330 330 330 331 332 332 333 333 332 332 331 330
289 292 293 292 295 295 295 296 296 297 298 304 307 311 311 312 313 314 316 316 317 318 319 320 321 321 322 323 324 325 327 327 329 330 329 330 332 331 332 332 331 331 330 330
287 290 292 289 294 295 296 297 297 294 300 305 307 310 313 314 315 315 317 317 318 319 320 321 321 322 322 324 324 324 326 327 328 329 328 330 330 329 331 332 332 331 329 330
286 290 283 295 301 300 298 298 300 300 302 304 305 309 312 318 316 317 318 318 319 320 321 322 323 322 324 324 323 323 325 326 328 328 328 329 328 327 330 332 331 327 326 326
285 288 292 296 297 296 297 297 301 302 305 307 310 310 311 317 319 320 321 321 322 323 323 323 322 323 323 323 323 322 323 325 327 328 327 328 326 325 327 329 329 325 325 324
287 284 285 293 298 301 301 294 300 301 302 304 308 301 307 317 319 320 322 323 322 323 323 323 323 323 322 322 322 322 323 325 326 328 328 327 328 326 327 329 328 330 326 324
286 286 291 297 299 301 293 293 301 301 302 303 303 310 312 315 318 322 322 323 324 323 322 323 323 323 321 321 322 324 324 326 327 329 330 330 330 327 327 327 329 329 328 327
287 286 286 301 298 294 297 301 301 302 303 303 306 309 311 314 318 320 320 321 322 321 322 323 323 322 322 321 324 325 324 325 326 329 328 328 329 326 326 328 327 326 326 326
290 290 297 299 299 302 301 301 302 303 305 305 308 310 313 316 319 317 320 322 322 322 322 321 322 323 322 323 324 323 324 324 326 329 327 327 327 325 323 326 325 324 324 323
291 293 295 298 300 301 302 302 303 305 306 308 308 311 314 317 319 317 320 321 322 322 320 319 322 323 325 324 323 323 323 324 325 327 326 326 327 325 322 322 322 322 323 321
291 294 295 298 298 300 300 303 303 305 306 308 310 311 314 317 319 316 319 320 322 322 322 320 321 322 324 323 323 323 324 324 324 324 325 325 326 324 323 325 320 321 322 323
290 295 293 294 299 300 300 301 304 303 305 308 311 312 315 317 321 316 319 320 321 322 322 321 320 322 323 323 324 325 323 322 322 322 324 325 325 322 298 304 302 300 303 315
295 299 298 299 301 302 300 302 304 304 306 307 311 316 319 320 322 316 319 320 320 322 322 321 320 321 322 322 323 325 325 324 321 318 322 323 324 323 321 312 299 298 298 298
298 300 298 299 298 302 302 302 304 305 306 308 310 316 320 321 320 317 318 320 321 321 321 321 320 321 321 321 323 324 326 308 322 321 320 322 323 323 322 322 321 321 300 305
298 299 299 300 300 302 303 303 303 303 304 306 309 312 317 319 320 320 319 321 322 321 321 320 320 321 322 321 323 323 324 320 323 322 321 318 322 322 322 322 321 322 324 303
297 298 299 299 300 301 301 302 302 303 304 305 306 310 313 319 320 321 322 321 320 320 320 320 320 322 322 321 323 322 322 310 314 321 320 320 320 320 320 321 321 321 322 321
296 294 296 297 299 300 300 302 303 305 304 304 305 308 312 314 320 320 321 323 322 322 322 321 322 323 322 321 323 321 320 317 307 320 320 320 320 320 320 321 320 320 321 320
300 300 300 300 299 300 301 302 304 305 306 306 306 308 310 312 313 319 321 323 323 322 323 323 324 323 322 322 323 322 321 319 316 318 320 320 320 320 320 321 320 320 321 319
302 302 302 303 303 302 303 303 304 306 306 308 308 308 309 313 313 317 322 323 323 323 324 325 306 315 324 320 318 322 320 319 317 319 320 311 318 321 320 320 320 321 321 321
302 303 304 304 305 305 304 305 306 306 306 307 309 308 308 310 313 314 319 322 323 325 326 326 323 323 324 318 306 322 321 320 319 319 319 319 319 320 321 311 320 321 321 321
301 301 302 303 304 306 307 306 305 305 307 307 307 309 308 310 313 314 317 317 321 321 319 311 325 327 324 315 316 323 321 321 320 321 320 319 320 320 322 321 320 321 321 321
302 301 302 303 303 304 307 308 307 306 306 307 308 309 310 310 312 313 317 318 321 292 317 326 326 306 317 295 322 322 321 321 321 322 322 320 320 320 321 321 321 321 321 322
303 303 304 303 302 303 304 306 308 307 307 307 307 308 309 311 313 312 310 317 320 309 319 325 303 290 289 321 324 324 322 319 320 321 321 322 321 321 321 321 321 321 321 322
303 303 302 303 305 303 302 303 305 307 309 309 310 310 310 310 314 319 322 308 296 298 316 319 301 290 288 324 325 325 323 322 320 320 322 307 322 323 322 321 320 322 322 318
303 303 303 303 302 302 303 303 303 303 305 306 310 311 312 313 312 316 318 317 295 302 320 293 290 289 320 327 325 323 321 320 320 320 322 323 322 322 323 323 324 323 322 322
303 303 304 304 303 305 304 303 300 301 300 299 302 307 311 313 314 312 314 306 317 307 320 323 324 323 328 325 326 323 324 319 314 313 319 323 322 321 321 322 322 320 321 320
303 297 303 302 304 304 305 303 301 299 299 298 297 303 308 311 312 309 303 315 317 318 321 323 323 316 324 327 324 323 320 317 309 319 319 319 318 320 318 315 314 316 315 315

GFSNGP_sfc_thetae_024.txt.gz
Theta_e
296 295 296 298 298 299 298 300 296 298 298 303 310 311 315 319 320 320 321 322 322 323 325 325 325 324 324 326 328 328 327 330 333 334 334 334 334 334 334 335 334 333 332 330
292 296 296 295 298 299 299 300 300 300 299 307 309 310 311 316 319 320 321 321 323 324 325 325 324 323 324 325 327 328 327 329 332 333 333 333 334 334 334 333 333 333 333 332
289 296 295 292 297 299 300 301 301 297 302 308 308 308 312 317 319 320 322 322 323 324 326 326 324 324 325 325 327 327 326 329 331 332 332 332 333 333 334 334 335 333 332 332
291 294 286 299 304 303 301 302 302 302 305 307 308 312 313 315 320 322 324 323 324 325 327 327 326 325 326 326 326 325 325 327 331 330 331 332 333 334 334 336 334 331 328 330
289 290 295 298 301 301 300 300 305 305 307 309 311 313 313 317 318 324 326 327 327 328 329 329 326 326 325 325 324 324 324 326 330 330 331 331 331 335 336 334 325 328 329 327
292 287 286 298 302 305 305 298 305 306 306 308 309 303 310 319 322 324 327 329 328 329 330 329 327 326 326 324 323 323 324 325 331 331 331 330 330 334 336 336 333 330 328 324
288 291 295 301 303 305 295 297 306 307 308 309 308 312 317 319 321 326 327 329 330 330 329 329 327 327 325 324 323 324 326 326 329 332 331 333 332 335 336 334 334 332 329 329
287 289 289 303 303 299 301 307 308 309 310 310 313 314 317 319 321 324 325 328 329 329 329 329 328 326 324 324 326 325 326 326 327 332 331 332 333 333 335 335 333 332 331 330
291 290 297 304 302 306 306 306 307 308 310 312 313 315 318 319 322 324 324 327 329 329 329 329 328 326 324 326 326 325 325 326 327 331 331 333 332 330 331 334 331 331 330 329
293 295 295 298 303 305 306 306 308 310 310 312 313 316 318 320 323 324 325 326 329 329 328 328 328 327 326 327 326 325 325 326 327 328 330 331 330 328 327 329 329 326 326 328
294 296 297 299 300 302 303 305 306 310 311 312 314 317 320 321 322 324 325 325 328 328 328 328 328 327 328 327 326 325 326 327 327 327 329 330 329 327 324 328 323 325 325 325
291 297 295 296 300 302 303 302 304 308 309 312 315 317 321 324 326 325 325 324 326 329 329 328 328 327 328 328 326 326 326 326 326 324 327 327 329 328 298 305 305 303 305 315
296 301 301 302 303 303 301 303 305 307 310 310 313 316 320 323 326 323 327 323 325 327 329 329 327 327 329 329 327 326 329 329 326 320 324 324 326 328 325 314 302 299 299 301
302 302 300 303 301 303 303 306 306 309 311 311 312 315 317 322 325 326 325 324 325 327 329 329 327 326 329 330 329 327 330 310 326 324 323 323 324 326 327 325 323 322 301 306
299 301 302 303 304 304 305 305 305 306 309 310 312 312 313 316 323 325 326 325 326 326 327 328 327 327 329 329 329 329 328 325 326 325 324 320 324 323 323 323 323 323 324 305
299 301 302 301 302 304 305 305 305 305 308 310 311 312 312 316 320 326 327 326 324 324 326 327 327 329 330 329 330 330 329 313 317 325 323 323 323 322 322 322 322 322 322 323
298 297 300 301 302 303 304 305 306 307 308 309 310 312 313 314 318 322 326 328 327 326 327 328 328 330 329 329 332 329 329 327 313 325 324 323 322 322 322 321 321 321 322 321
301 302 303 303 301 304 305 306 307 307 308 310 310 312 313 313 315 317 324 329 328 327 328 329 329 330 330 329 329 329 329 328 324 324 325 324 322 322 322 322 322 322 322 320
302 302 305 306 306 306 307 307 308 309 309 310 310 311 313 313 314 317 322 328 328 327 329 330 308 317 330 324 322 329 328 327 325 325 325 315 322 323 322 322 322 322 323 322
302 302 303 304 306 307 307 309 311 310 309 310 310 310 311 314 314 315 318 324 326 328 330 331 329 327 328 323 306 328 328 327 325 324 324 325 324 324 324 312 322 322 323 322
304 304 304 303 303 306 306 307 308 310 310 310 309 309 309 313 315 314 316 316 325 323 323 314 329 329 327 322 319 325 327 327 326 325 325 324 325 325 325 325 324 323 323 323
304 303 302 303 304 305 306 306 306 308 310 310 310 310 310 311 314 315 317 316 320 293 318 328 331 303 319 295 326 325 326 327 327 326 325 325 325 325 325 326 326 326 325 326
305 304 305 303 303 305 305 303 303 303 304 309 311 311 311 311 313 312 312 317 319 305 319 322 303 291 290 321 326 325 326 326 327 326 326 326 326 325 325 326 326 326 327 327
305 305 304 307 306 306 302 303 304 306 305 304 306 310 313 313 314 316 318 306 295 302 314 315 308 291 287 326 329 327 327 327 327 327 327 310 327 324 326 327 327 327 327 323
305 305 305 305 305 305 307 306 304 304 304 304 305 306 309 313 314 316 317 318 296 305 320 299 293 289 316 324 326 330 331 330 330 329 328 327 325 325 326 327 328 328 328 327
305 304 305 304 304 307 306 306 304 303 300 299 299 301 304 308 313 314 317 307 317 307 317 317 322 324 325 325 328 330 330 330 328 327 326 329 327 326 325 325 326 325 326 327
303 299 304 304 304 303 305 304 302 300 299 299 298 299 299 303 309 310 305 316 316 316 317 317 317 316 325 325 330 331 332 331 319 328 328 326 327 327 325 325 327 327 326 325

GFSNGP_sfc_thetae_027.txt.gz
Theta_e
293 296 298 299 299 301 301 302 300 302 302 308 313 315 318 321 322 322 322 324 325 326 327 328 327 325 326 327 328 328 328 332 333 334 334 335 334 334 335 334 332 331 333 333
289 294 297 297 300 301 302 303 303 304 303 310 315 314 315 319 321 321 322 323 325 326 327 327 326 324 326 327 327 328 329 330 332 332 333 332 335 334 334 333 333 333 332 332
287 292 293 293 299 301 302 305 304 300 303 309 309 310 311 318 320 321 323 324 325 326 328 328 325 325 325 326 328 327 328 330 331 332 331 331 332 333 333 334 335 333 333 332
288 291 286 298 305 305 303 304 306 306 307 308 312 314 316 319 322 322 324 325 326 327 329 328 326 326 327 327 326 326 328 329 331 330 332 331 332 332 335 338 335 335 333 333
287 288 296 298 304 302 301 302 309 308 308 310 313 313 314 323 324 324 327 328 328 330 331 329 326 326 326 326 325 326 326 329 330 330 331 331 332 334 336 331 331 331 332 331
290 288 285 297 305 308 309 299 309 310 310 311 312 304 313 321 323 327 329 330 330 331 331 329 327 327 326 325 324 325 326 329 331 331 332 331 334 335 338 337 332 329 330 328
289 290 294 300 307 308 297 297 309 311 312 312 310 314 318 320 323 325 330 331 332 331 331 329 328 327 325 325 323 326 327 329 332 333 333 333 336 338 338 336 333 330 330 329
292 291 288 303 305 301 303 308 310 311 312 312 315 317 318 320 322 324 328 330 331 331 331 330 328 327 325 325 326 326 327 328 331 334 332 332 335 336 336 336 333 331 330 329
292 290 297 302 302 305 307 306 310 311 312 313 315 317 319 321 323 324 327 329 331 331 331 330 328 327 325 327 326 325 327 327 331 333 332 334 332 334 333 334 330 330 330 329
296 295 296 301 304 304 307 307 310 312 313 314 315 318 321 323 324 325 327 328 331 331 330 329 328 327 327 327 326 325 327 328 330 331 331 333 331 331 331 331 328 328 328 329
293 297 298 299 303 305 307 308 309 311 312 314 315 317 321 324 325 326 327 328 330 331 331 330 328 327 327 327 326 326 327 328 328 330 331 331 331 327 328 333 324 326 327 330
290 296 298 299 304 306 306 306 309 309 311 314 315 316 320 323 327 329 327 328 329 331 331 331 329 327 326 327 326 327 328 326 327 327 330 329 327 326 297 303 303 301 302 314
296 301 301 304 306 307 307 307 309 309 312 313 315 316 317 320 326 324 328 330 327 329 331 332 330 327 327 327 326 327 330 330 326 322 327 329 328 326 322 316 303 303 299 301
303 302 300 301 301 305 307 309 309 310 312 314 315 317 317 319 322 328 328 329 330 328 331 332 331 328 328 328 326 327 332 310 327 324 325 325 329 329 328 324 322 321 304 307
301 302 302 305 306 305 307 309 309 309 310 312 315 316 316 317 320 324 329 329 329 327 329 331 330 329 329 330 329 327 330 327 327 325 324 321 325 327 329 328 325 323 322 307
302 303 303 303 304 305 306 307 307 308 310 312 313 314 316 318 320 323 329 330 326 325 327 329 331 331 330 331 334 330 331 315 318 326 324 324 323 323 324 325 326 324 322 321
298 299 302 301 303 305 305 307 308 308 310 311 313 314 315 317 319 320 325 332 331 330 329 329 331 332 331 332 336 330 329 329 314 326 325 323 322 323 322 322 322 322 323 322
302 303 305 306 304 304 306 308 308 309 310 311 312 313 314 316 316 318 321 330 331 329 330 332 331 331 332 332 335 331 331 330 327 326 326 324 323 323 323 322 322 322 322 319
303 302 304 305 306 306 306 307 309 312 311 312 312 312 313 315 317 318 321 325 330 329 332 335 311 321 333 328 326 331 331 330 329 328 327 315 322 322 322 322 322 322 322 322
304 304 304 304 305 307 307 308 309 309 312 312 312 312 312 314 315 318 319 321 327 325 328 332 331 333 332 327 309 331 331 331 330 329 328 326 326 326 324 312 322 322 324 323
304 305 304 302 304 305 304 304 306 304 307 312 312 311 312 313 314 317 318 318 323 322 322 315 331 333 330 320 322 329 330 332 332 331 328 327 327 328 328 324 324 323 325 324
304 304 305 306 305 306 305 305 305 305 305 308 310 313 312 312 313 315 318 319 321 296 316 323 329 303 317 297 328 328 328 329 331 332 330 329 329 329 329 329 326 327 326 327
304 305 304 305 305 306 307 306 305 304 303 304 306 308 309 311 314 313 312 319 320 305 318 320 298 292 292 325 329 329 328 328 329 329 330 331 330 330 330 329 330 330 330 330
305 305 306 306 307 306 306 306 306 306 304 303 303 305 306 307 310 315 318 306 296 304 316 315 306 291 290 327 330 330 329 328 329 329 329 309 329 329 329 330 328 330 331 323
306 305 306 305 305 304 306 306 305 305 304 302 302 302 302 303 305 310 314 316 297 305 320 301 293 294 320 325 328 330 331 329 329 329 330 329 329 329 329 328 329 328 329 330
305 304 305 306 306 306 305 306 304 305 303 301 300 303 301 301 302 305 312 307 316 307 317 318 318 318 323 326 327 329 330 331 330 330 326 330 330 330 330 330 330 330 331 332
305 300 304 305 305 305 305 303 301 302 303 301 300 302 301 301 299 298 298 310 315 316 317 318 317 312 318 322 325 329 331 333 319 331 332 331 332 334 333 332 331 330 330 330

GFSNGP_sfc_thetae_030.txt.gz
Theta_e
291 291 292 293 296 298 298 301 297 300 303 307 312 316 318 323 323 322 323 324 326 326 328 329 328 327 327 328 329 330 331 332 334 333 335 335 335 335 336 330 330 330 332 331
289 292 291 289 294 298 300 301 302 302 304 313 317 318 319 320 321 321 322 323 325 327 328 329 327 325 326 328 328 329 332 332 333 332 332 334 334 335 336 334 333 332 332 330
285 291 290 287 295 298 301 304 304 300 307 314 311 312 318 320 321 321 322 324 325 326 328 329 326 327 326 328 328 327 330 331 331 332 331 332 333 333 333 333 333 331 331 330
287 289 279 294 305 304 302 305 307 306 307 311 312 318 319 321 322 323 324 325 326 327 330 330 327 327 328 328 326 326 329 330 330 330 330 332 330 333 334 334 333 332 331 329
287 286 289 296 302 301 301 302 308 307 308 311 313 318 317 320 323 326 327 328 328 330 331 330 327 327 327 326 325 326 326 330 330 331 331 331 332 334 335 333 331 329 330 329
288 285 282 294 302 307 308 297 309 311 311 311 312 307 312 319 321 325 331 330 329 331 332 329 328 328 327 325 324 325 326 330 331 331 331 333 333 334 336 335 331 331 328 328
288 286 287 298 303 308 295 297 310 312 312 312 310 313 318 320 323 326 329 330 332 332 331 330 330 329 326 325 323 327 328 331 332 333 333 335 335 335 335 333 330 327 326 326
291 287 283 298 301 296 301 307 308 311 312 312 315 317 319 320 322 324 327 329 331 331 331 330 329 328 326 326 326 328 328 330 333 335 331 335 336 336 335 333 330 328 326 325
291 289 296 300 300 303 305 306 308 309 312 314 315 316 319 320 322 323 325 330 331 331 332 330 329 328 327 328 327 327 327 331 333 333 332 334 335 333 333 334 330 328 328 326
292 294 296 299 302 305 306 306 309 310 312 314 315 318 320 322 323 323 326 328 332 331 331 328 328 328 330 328 327 327 328 332 333 332 332 332 333 334 332 331 330 329 328 326
292 296 298 299 302 304 305 307 308 311 312 313 315 316 318 322 325 325 326 328 331 331 332 329 328 328 329 328 327 327 329 330 332 332 332 332 332 329 332 320 323 330 330 329
290 297 298 298 302 305 305 306 308 309 310 314 315 314 317 319 323 328 328 328 329 334 333 331 328 327 328 328 327 329 329 328 329 330 331 330 327 323 297 301 300 298 302 323
296 301 301 303 304 304 304 306 309 309 311 312 315 315 316 317 321 320 326 329 330 330 334 333 329 327 327 327 327 329 328 329 328 326 328 329 328 325 322 310 298 299 299 305
302 301 300 301 300 304 306 307 309 311 311 312 314 316 316 317 319 323 327 329 330 330 331 334 331 328 327 327 327 329 329 312 328 327 329 330 327 327 324 322 320 319 304 309
301 303 303 304 305 305 306 307 307 308 310 311 314 315 315 316 317 321 326 330 331 330 328 331 331 330 329 327 327 329 328 327 327 326 328 324 330 329 327 324 322 321 315 307
301 303 303 303 304 304 305 305 305 307 309 311 312 314 314 317 318 321 323 328 330 329 329 328 331 333 329 328 329 328 329 315 318 327 324 325 325 327 328 327 324 321 319 318
299 299 301 302 303 304 305 306 307 307 309 310 312 313 314 316 318 318 320 326 330 332 332 331 333 335 331 330 331 327 329 327 312 325 324 324 323 324 325 327 327 324 322 318
302 303 305 304 303 304 305 307 308 309 309 311 312 312 313 314 315 318 320 324 330 331 334 335 328 329 333 331 333 329 328 328 326 324 326 324 323 323 323 323 324 326 325 316
304 303 304 304 305 306 305 305 307 310 310 311 312 311 313 314 315 317 321 321 325 324 325 332 310 325 335 328 326 331 330 329 328 326 325 316 319 323 323 323 322 322 323 318
304 305 304 304 303 303 303 305 306 307 308 310 312 313 312 313 314 315 319 320 327 323 326 326 325 334 335 327 307 330 330 331 330 327 325 326 325 323 322 311 322 322 322 320
303 305 304 305 304 305 305 304 304 303 305 308 309 310 311 314 314 314 316 316 324 321 321 315 326 319 323 313 320 328 331 331 331 330 327 325 326 324 323 322 322 322 322 323
304 304 304 305 305 305 305 305 304 303 304 304 305 305 306 309 311 315 318 318 319 294 316 320 319 298 308 296 328 328 329 332 330 333 330 328 325 327 325 324 323 322 323 324
304 304 304 304 304 305 305 305 304 304 302 301 301 301 302 303 306 307 310 316 315 306 317 320 297 290 292 318 327 329 329 329 329 329 332 330 329 326 328 326 324 325 324 324
305 305 305 305 306 306 304 305 305 305 304 302 303 302 302 300 301 305 307 303 297 301 312 315 308 291 289 317 322 328 329 330 331 328 328 312 329 329 328 329 327 327 327 318
305 305 306 305 304 303 304 305 304 305 304 303 302 302 301 303 300 300 303 305 300 305 316 303 294 290 312 319 321 325 328 330 331 329 329 328 330 329 329 330 329 329 329 328
305 303 306 306 305 305 304 303 303 303 302 301 301 300 301 300 301 300 298 297 305 302 313 315 316 317 317 319 319 323 326 329 329 333 326 331 331 332 331 332 331 330 332 332
305 299 305 304 304 306 305 303 302 302 301 300 299 299 299 300 298 298 293 296 298 300 304 307 309 306 310 313 319 322 325 328 317 328 331 331 331 332 332 331 333 333 332 331

GFSNGP_sfc_thetae_033.txt.gz
Theta_e
287 290 291 289 289 291 289 291 289 293 295 298 305 310 313 317 318 318 318 320 321 321 322 323 322 321 323 322 323 324 327 327 326 326 327 327 327 326 327 327 327 329 326 324
286 290 291 288 290 291 291 292 293 295 296 307 310 316 316 316 317 317 318 320 321 322 323 323 321 321 321 321 322 327 327 329 327 327 328 326 326 326 326 328 329 327 324 323
283 291 289 284 289 290 292 294 295 292 299 307 309 314 312 315 317 318 319 321 321 322 323 322 320 320 319 320 321 327 327 330 328 328 327 326 327 326 324 324 324 324 322 322
285 287 274 289 301 301 299 297 304 304 305 309 312 314 315 315 315 318 320 321 322 323 322 320 319 319 320 320 320 326 327 329 327 328 326 327 327 325 323 323 323 323 322 319
284 284 288 293 296 295 295 300 306 306 308 310 313 312 311 316 317 317 321 322 323 324 322 319 320 320 320 318 318 324 325 327 328 328 325 325 325 325 325 325 322 323 322 318
286 282 280 288 296 300 301 294 305 308 308 310 311 302 305 315 317 318 323 323 324 324 322 319 320 320 319 317 317 319 325 328 327 327 326 325 325 325 324 322 322 325 322 319
286 284 287 293 297 303 292 294 305 309 309 309 306 307 311 316 319 320 321 323 326 324 320 319 320 320 317 316 316 320 325 328 327 326 327 327 325 326 325 322 325 321 321 320
287 286 282 296 297 293 298 303 306 306 309 309 311 313 314 316 318 321 321 323 325 322 321 321 321 320 317 315 318 321 327 327 327 327 331 330 326 326 325 322 321 320 322 319
287 287 296 299 298 302 303 303 304 306 309 309 310 312 315 317 318 321 322 322 325 323 321 321 321 320 318 318 319 320 324 325 327 328 329 329 326 325 325 323 322 320 319 318
291 294 295 298 300 301 303 304 306 307 308 309 309 311 312 316 319 319 323 324 324 323 320 320 321 321 321 320 320 321 326 325 325 326 326 328 329 327 325 324 322 323 322 320
292 295 297 299 300 302 304 304 306 307 308 308 309 310 311 313 316 318 321 324 326 323 321 320 321 320 323 321 320 321 326 325 325 325 324 324 321 320 325 323 324 324 323 323
289 295 295 296 302 304 302 302 305 306 306 309 310 310 312 312 315 317 318 321 324 325 323 322 322 321 323 321 320 323 324 325 324 325 325 323 312 309 298 299 298 307 310 320
294 299 299 301 302 303 301 303 305 307 309 308 310 311 312 312 315 315 320 324 324 325 325 323 322 322 323 322 322 323 323 324 323 323 326 321 317 312 309 308 298 300 305 305
300 299 297 301 298 302 303 304 305 308 310 310 311 312 312 312 315 316 319 322 326 326 327 324 322 321 323 323 323 324 322 310 323 323 324 323 320 317 313 311 311 313 302 305
300 301 301 302 303 304 304 304 303 305 307 309 310 312 311 311 313 315 319 321 324 326 327 327 323 322 323 323 322 323 322 322 322 320 324 321 321 319 317 315 313 312 309 303
300 302 303 303 303 304 304 305 305 306 308 308 309 310 311 312 313 316 317 319 319 323 328 327 326 325 324 322 322 323 322 312 314 321 320 322 321 320 318 317 316 312 313 313
296 297 300 301 302 303 303 305 306 307 308 309 309 310 310 312 313 314 316 317 323 323 324 322 321 329 325 322 322 324 322 315 309 319 318 321 318 322 321 319 317 314 314 315
299 300 302 301 302 303 303 305 305 306 306 308 310 311 311 310 310 312 314 318 324 321 320 323 318 327 328 321 322 324 323 321 319 319 318 317 318 317 320 320 319 317 315 312
301 301 303 302 303 303 303 302 303 304 306 307 308 310 310 311 311 312 314 317 321 317 317 321 307 318 322 312 311 322 324 323 320 320 319 310 311 318 316 318 319 321 319 315
303 303 305 304 304 303 302 303 303 303 304 304 304 304 304 306 308 310 312 317 317 314 316 317 314 314 316 311 302 320 321 323 322 321 320 319 316 316 317 308 316 316 320 316
304 303 304 304 303 303 302 302 301 300 301 302 301 301 301 302 304 305 308 305 305 306 306 307 312 309 314 305 312 324 322 322 322 321 321 318 319 316 316 315 316 316 315 315
302 300 301 303 303 303 303 302 301 300 301 300 300 300 300 299 300 302 304 302 304 295 304 311 311 294 299 295 316 323 325 324 322 323 322 321 319 319 317 316 316 317 316 316
303 302 302 303 302 303 304 304 301 300 300 300 300 298 298 299 299 296 296 300 303 300 304 311 298 293 290 309 312 317 324 325 324 323 321 322 321 320 320 318 318 317 316 315
302 303 303 303 302 302 299 300 302 300 300 299 299 299 298 297 297 298 298 294 292 293 301 298 297 294 291 310 312 313 319 322 323 322 323 308 320 322 321 321 317 319 317 310
301 304 302 302 300 298 299 301 300 299 299 297 297 299 299 299 296 297 297 296 293 296 302 296 293 294 306 307 311 314 317 319 318 320 323 323 324 321 322 322 322 319 320 320
302 302 301 301 300 300 299 298 297 297 297 297 296 297 297 297 296 295 295 293 294 292 296 298 298 298 300 301 304 309 311 315 315 321 319 321 322 323 324 324 322 319 318 320
301 301 302 302 303 301 299 297 296 295 295 295 295 296 296 295 294 293 291 292 292 292 292 293 294 293 295 296 297 299 302 303 298 302 306 307 306 307 309 315 322 322 323 322

GFSNGP_sfc_thetae_036.txt.gz
Theta_e
285 287 288 288 288 289 288 289 285 289 289 294 297 300 306 314 316 317 318 319 320 321 322 323 323 323 323 322 322 324 326 326 322 323 324 324 324 324 324 327 327 327 323 322
284 288 289 287 290 291 290 290 290 290 290 299 301 310 310 314 316 316 317 319 320 321 322 322 321 322 321 322 320 324 326 327 324 324 325 324 323 323 327 326 327 325 321 321
281 288 288 283 289 290 291 293 292 287 293 300 302 313 312 311 316 317 318 319 320 321 322 322 321 321 318 320 323 325 326 327 325 325 325 324 324 323 323 323 322 319 319 318
283 285 277 289 297 298 296 298 298 303 304 307 311 314 317 316 314 317 319 320 321 322 322 321 321 319 317 322 324 325 326 327 325 325 324 324 323 321 320 320 320 319 317 316
282 283 287 292 292 293 293 296 303 302 306 309 310 314 314 319 318 318 320 322 323 324 322 319 318 318 319 321 324 325 327 327 325 325 324 324 323 320 320 320 318 318 316 315
285 281 280 287 291 297 300 293 303 301 303 308 308 302 306 317 318 318 321 323 323 323 320 319 317 319 318 317 322 323 324 326 326 325 324 323 322 321 320 320 323 322 316 314
283 283 286 291 293 299 290 292 300 303 303 310 305 309 312 316 318 318 321 323 324 321 318 318 319 318 316 315 318 324 326 326 324 324 323 323 322 321 319 320 321 320 318 314
284 284 280 295 296 292 295 299 301 302 306 308 311 313 315 317 319 319 320 322 322 319 317 318 319 318 315 314 316 323 325 325 324 324 327 325 323 321 320 320 321 318 316 314
285 285 292 297 297 300 302 300 302 303 306 309 310 311 313 315 319 321 320 320 321 318 317 318 319 318 315 316 316 323 324 324 324 326 326 325 323 321 319 317 317 317 317 317
290 292 295 298 300 302 303 302 303 304 306 309 308 310 311 313 317 320 323 323 321 318 317 316 317 318 318 316 320 324 323 324 325 325 323 323 324 323 321 319 317 319 318 319
291 294 295 298 300 302 302 304 303 304 306 308 308 308 310 311 313 316 321 323 323 319 318 317 317 318 318 317 321 323 324 324 325 325 324 323 320 320 323 322 320 320 320 321
287 293 293 295 299 302 301 302 303 303 304 308 308 308 310 311 314 318 319 323 324 322 320 319 318 319 319 318 323 324 323 324 324 325 324 322 315 310 298 301 298 301 308 316
295 298 298 299 301 302 302 303 304 304 307 305 309 308 309 309 313 315 318 320 323 325 322 321 319 319 321 319 324 324 323 323 322 322 322 315 313 314 311 306 297 296 301 302
300 298 297 299 298 302 304 305 305 308 308 308 308 308 308 309 312 314 315 317 320 325 326 322 321 320 322 320 323 324 323 311 323 323 322 317 313 311 311 311 315 314 300 301
299 301 301 302 304 304 304 305 305 305 307 307 308 308 308 308 310 313 316 320 322 324 323 324 321 320 322 321 321 323 323 322 324 324 323 319 316 312 311 311 316 315 308 302
299 301 302 302 302 303 302 303 303 304 305 306 307 308 309 309 310 312 316 321 320 318 322 321 322 322 322 321 321 321 323 313 316 322 321 321 319 315 312 311 311 314 316 316
294 296 298 298 301 301 300 301 303 303 303 304 305 308 309 309 310 310 313 319 321 319 318 317 319 324 324 321 322 322 322 317 308 321 321 321 321 318 316 314 313 312 315 311
299 301 299 300 298 298 299 301 301 302 302 303 305 305 305 304 304 306 312 316 313 313 314 314 311 314 317 314 318 322 322 320 319 320 320 321 321 320 319 317 315 313 313 310
300 301 302 302 301 299 299 299 299 301 301 302 302 301 302 302 303 306 309 306 306 305 305 312 305 310 312 306 306 317 320 320 319 320 318 309 312 318 320 319 317 316 314 313
301 302 303 304 302 299 298 299 299 299 300 299 300 299 299 300 302 304 306 304 302 304 304 307 311 310 311 309 305 321 319 320 319 318 318 314 316 316 317 309 319 318 316 315
303 302 300 300 300 300 298 299 298 298 300 299 297 297 297 298 299 300 300 298 299 301 300 303 304 304 305 300 309 320 323 320 319 317 317 314 314 313 314 315 316 319 319 316
301 300 300 300 300 299 299 298 298 298 297 298 298 297 297 296 296 297 299 296 298 291 300 304 302 297 301 297 314 315 321 325 320 319 318 318 317 316 315 315 315 316 317 319
300 301 301 300 299 298 299 298 298 297 296 296 297 296 296 295 296 293 293 296 296 293 301 298 291 289 293 310 314 315 316 323 323 322 322 319 319 318 318 316 316 317 317 315
300 301 300 300 298 298 296 297 297 297 296 296 296 296 295 294 294 295 296 291 289 290 296 292 291 289 294 304 307 311 310 314 317 321 322 309 323 320 319 318 316 317 317 311
302 302 301 297 296 295 296 296 295 296 295 294 295 296 295 295 293 293 293 292 289 291 294 290 289 291 298 299 300 302 301 299 301 307 308 308 308 309 311 315 319 319 316 315
300 301 300 298 297 295 295 294 292 293 293 292 292 294 295 294 293 292 293 291 292 291 292 293 292 294 295 295 296 297 296 295 296 298 299 300 301 301 304 305 308 311 311 314
299 297 298 298 297 296 295 293 293 292 292 291 290 292 292 292 292 291 290 291 291 291 291 291 291 290 292 293 293 293 293 293 291 293 294 294 296 298 301 301 303 302 304 303

GFSNGP_sfc_thetae_039.txt.gz
Theta_e
284 286 287 286 285 286 286 287 283 287 287 292 295 297 299 306 309 314 317 319 320 320 321 323 322 323 323 322 322 322 323 322 321 321 322 322 322 320 321 323 323 325 323 321
283 287 287 285 287 288 288 289 288 289 288 295 298 301 303 311 313 315 317 319 320 321 322 322 322 322 322 321 320 323 323 322 321 322 323 322 322 321 322 324 325 324 320 319
279 285 286 283 286 288 289 291 290 285 290 298 301 302 306 311 313 316 318 319 320 321 322 322 322 322 320 319 320 322 323 324 323 323 323 322 322 321 322 324 322 318 317 317
280 283 276 287 295 293 291 292 293 295 301 302 306 306 313 315 313 315 318 319 320 322 322 322 321 320 318 319 322 323 324 324 323 323 323 322 321 319 318 317 317 316 315 314
279 280 285 289 291 291 291 292 299 299 300 303 306 310 309 317 318 316 316 320 321 322 322 321 318 317 318 320 322 323 324 324 324 323 322 322 319 317 317 317 316 314 314 313
283 279 277 286 291 295 296 288 298 299 300 301 303 300 303 314 319 319 320 321 321 322 321 320 317 317 319 319 321 322 324 324 324 323 323 321 319 317 317 318 318 316 313 313
281 280 285 289 292 296 286 288 298 299 301 302 303 306 310 314 317 319 320 321 321 321 319 318 316 317 317 320 320 323 324 324 323 323 322 321 319 318 317 318 319 316 313 312
284 282 278 291 292 292 294 299 299 301 302 301 308 309 311 316 318 320 320 320 321 319 318 315 317 317 315 318 321 322 324 323 322 321 324 322 319 317 318 317 316 315 314 313
284 284 289 290 294 301 302 300 299 301 303 302 308 308 310 313 315 320 319 321 321 319 315 316 317 317 314 316 318 322 322 321 321 322 323 322 319 317 316 318 319 318 315 316
288 291 293 296 300 301 301 301 302 304 304 305 308 309 310 312 315 321 320 318 317 316 315 315 315 316 317 313 319 322 321 321 322 322 320 321 321 319 317 315 316 319 316 316
290 293 294 297 298 300 301 302 302 305 305 308 309 309 311 313 316 319 322 320 317 316 316 316 315 315 314 316 321 321 321 322 323 321 321 319 320 317 319 318 317 318 318 319
287 294 294 295 299 302 301 301 303 305 307 309 309 309 311 313 317 317 319 323 319 318 317 316 316 315 314 319 322 321 321 322 323 322 320 319 316 310 297 302 305 305 306 312
294 298 297 298 301 304 302 304 306 307 307 306 308 308 310 313 315 315 319 319 321 320 319 319 317 316 316 320 322 322 322 322 322 320 321 317 315 315 313 306 297 297 297 300
298 299 297 299 299 304 304 306 307 306 307 308 308 309 309 311 315 317 318 320 322 322 321 320 319 318 317 321 322 322 322 309 323 323 322 317 316 316 316 312 312 309 298 300
299 301 301 302 304 302 303 304 303 303 304 305 308 308 309 308 310 314 319 319 318 317 319 321 320 320 319 322 322 321 322 321 323 322 322 316 315 313 313 312 315 312 306 301
297 300 299 299 299 299 299 301 301 301 303 304 305 305 306 308 309 312 317 317 312 310 312 312 315 321 322 320 321 321 321 311 315 322 318 316 312 311 310 310 314 314 314 312
293 294 297 297 297 298 298 299 300 301 301 302 303 304 304 306 307 306 308 309 310 310 308 310 309 314 325 321 321 322 321 316 308 321 320 319 316 313 312 310 311 313 316 310
295 296 299 299 297 296 297 298 298 298 299 301 302 301 301 301 302 304 304 306 307 307 307 308 308 310 313 312 320 321 321 319 316 321 321 320 319 317 314 312 312 312 312 308
297 298 302 301 298 296 297 297 297 298 298 299 300 299 299 300 301 304 303 302 301 301 301 307 300 305 310 304 306 319 321 320 318 319 320 310 312 318 317 315 314 313 312 310
298 299 300 299 298 297 296 297 297 298 297 297 298 298 297 297 299 301 302 299 298 297 300 303 305 306 308 308 301 320 320 320 318 318 316 315 317 318 318 307 315 315 313 312
300 300 298 298 297 297 296 296 295 295 297 297 295 296 294 295 297 297 296 296 297 295 298 297 300 299 306 305 312 316 321 320 318 316 315 313 313 315 316 317 317 317 316 314
299 299 298 298 297 296 296 295 295 295 295 295 295 296 294 293 294 295 294 292 295 288 295 296 296 290 296 298 314 315 317 321 321 319 317 315 313 314 313 314 315 317 318 316
298 299 299 297 296 296 296 295 294 294 293 293 293 293 293 293 293 291 290 291 293 291 294 294 289 288 291 306 305 303 306 308 310 310 311 316 317 316 316 314 314 314 313 314
299 299 298 297 296 295 293 294 294 293 293 294 293 293 292 292 291 293 293 290 288 290 292 289 290 288 293 300 299 298 298 299 301 304 304 299 308 310 310 312 312 314 315 313
299 298 296 295 293 292 292 293 293 293 292 291 292 292 292 292 291 291 293 292 288 291 292 289 288 290 295 295 295 295 294 294 295 297 298 299 300 304 304 305 306 306 307 307
298 298 296 295 294 292 292 290 290 291 290 289 290 291 291 291 291 291 292 290 291 289 290 290 290 292 292 292 292 292 292 292 293 293 293 294 295 296 298 300 301 302 303 303
300 296 296 295 294 293 292 290 289 288 289 288 288 290 291 291 290 290 289 290 290 290 289 289 289 288 290 290 291 291 291 291 289 291 291 291 292 293 294 295 295 296 296 297

GFSNGP_sfc_thetae_042.txt.gz
Theta_e
284 286 286 285 284 285 283 284 281 284 285 290 293 294 296 298 303 311 315 317 319 320 321 321 321 322 323 322 321 323 323 322 322 322 322 323 322 322 323 323 323 325 324 323
282 285 286 284 286 286 286 286 285 286 286 293 296 297 302 302 306 312 316 318 320 320 322 321 321 322 323 321 321 323 322 322 322 322 323 323 322 322 323 324 324 325 322 321
278 284 284 279 284 286 287 288 287 283 288 293 294 302 304 304 311 313 317 319 320 321 322 322 322 322 321 321 321 323 323 323 323 324 323 323 323 323 323 323 322 321 320 320
278 282 273 286 294 293 289 289 291 291 292 295 302 304 306 310 313 313 318 320 321 321 322 322 322 321 320 320 322 322 323 324 324 324 323 323 323 322 321 321 320 319 318 318
279 278 283 286 290 290 289 288 294 295 297 300 303 304 305 314 316 316 318 320 321 322 321 321 321 320 320 320 322 323 323 323 324 324 323 323 321 320 319 319 319 318 318 317
282 277 276 286 290 294 294 285 298 298 298 300 302 296 303 312 316 317 319 321 321 321 320 319 318 319 319 319 321 322 324 324 324 324 324 322 320 319 320 320 319 318 316 317
281 279 284 289 290 292 286 285 298 298 300 300 299 304 305 311 313 316 319 320 321 321 319 319 317 319 318 320 321 323 325 324 324 324 324 322 320 321 320 320 318 317 315 316
283 281 278 291 289 287 293 299 299 299 299 300 303 303 307 310 314 317 317 321 321 319 317 316 317 319 318 319 322 324 325 323 323 323 325 322 321 320 320 320 318 315 314 314
284 283 291 293 291 295 296 298 299 300 301 301 303 304 308 309 312 316 320 320 322 320 316 316 318 319 318 320 322 323 323 322 322 323 323 322 320 319 318 319 318 316 316 315
288 291 292 295 296 299 301 299 302 302 302 303 303 307 308 311 315 319 320 321 320 317 316 314 317 317 319 317 323 323 322 321 322 322 321 322 321 320 319 320 320 318 316 315
289 293 294 295 297 299 301 302 302 306 307 306 308 309 310 313 315 319 320 319 319 317 316 316 316 316 316 318 323 322 322 322 323 321 322 321 319 318 320 320 319 319 319 319
287 294 293 294 298 301 301 302 303 305 307 309 310 310 313 314 317 318 319 318 317 316 316 316 316 315 315 319 323 322 321 322 322 322 322 321 317 315 295 301 301 303 304 314
294 298 298 299 302 304 303 304 305 304 306 307 309 311 311 315 318 316 318 320 320 317 317 317 316 315 317 321 322 322 322 322 322 320 322 320 319 318 317 307 295 297 297 298
299 299 297 300 299 302 303 305 305 305 306 307 308 310 311 312 317 316 314 313 315 322 319 318 317 316 317 322 322 323 323 308 324 323 323 321 320 320 320 318 318 316 299 300
298 299 299 300 300 299 301 302 301 301 303 303 305 306 308 311 309 310 311 312 310 311 313 319 319 319 319 322 322 322 322 322 324 324 323 319 320 320 320 319 318 315 311 302
296 298 298 297 297 297 298 299 298 299 301 302 302 304 307 307 308 308 309 311 307 306 308 308 309 312 320 323 322 322 322 311 316 323 320 319 318 318 317 317 317 316 316 314
293 293 295 294 294 295 296 297 297 297 299 300 301 303 304 305 304 304 305 307 309 307 308 308 304 309 317 323 322 322 322 318 307 322 321 320 319 318 318 316 316 317 319 312
296 299 299 296 294 294 296 297 297 296 297 300 301 301 300 301 301 301 302 304 307 307 304 307 306 308 312 310 321 323 322 321 321 322 322 321 320 319 317 316 315 317 319 309
297 298 298 296 295 295 295 295 297 297 297 298 298 297 298 299 301 302 301 299 299 299 298 302 299 307 311 309 311 322 322 320 321 322 322 310 316 319 317 316 316 316 317 313
297 298 298 297 296 295 294 295 296 297 297 297 296 295 295 296 297 299 300 296 295 295 298 299 302 304 307 310 305 322 323 322 320 321 321 320 320 320 319 308 317 317 316 316
299 298 297 296 295 295 294 294 294 293 295 296 295 293 293 295 294 294 294 293 294 293 296 296 298 298 307 305 313 321 322 321 321 319 318 319 319 320 321 320 318 319 318 317
298 297 296 296 295 294 294 293 294 293 293 293 294 294 293 292 293 293 292 291 294 288 294 296 295 290 297 295 304 306 310 311 313 316 318 317 316 316 316 317 318 319 319 319
298 298 297 296 294 293 293 293 292 293 292 291 291 292 291 291 291 290 289 291 293 289 293 293 289 288 290 299 299 300 301 302 303 304 307 309 311 312 311 311 312 311 311 313
298 297 295 295 294 293 291 292 291 292 292 292 291 292 291 291 290 293 293 289 288 289 290 289 289 288 291 296 295 295 295 296 298 298 300 298 305 304 303 305 307 306 306 305
298 296 295 293 292 290 291 291 291 290 291 290 291 291 291 292 290 291 292 291 288 289 290 288 288 289 293 293 293 292 293 293 293 295 295 296 296 299 300 299 298 300 300 302
296 295 295 294 292 291 290 290 288 289 289 289 289 290 290 291 291 291 291 289 289 288 289 289 289 291 291 291 291 291 290 291 291 291 292 293 293 293 294 294 295 295 295 295
297 294 294 293 292 291 290 289 288 288 288 289 288 289 290 290 289 289 288 289 289 288 288 288 288 288 289 289 289 290 290 290 288 290 291 291 291 291 291 292 292 292 293 292

GFSNGP_sfc_thetae_045.txt.gz
Theta_e
287 288 288 287 287 288 286 288 284 287 288 292 296 298 300 302 303 303 306 316 322 322 324 330 331 330 330 330 331 332 331 331 332 334 334 334 333 333 333 333 333 334 333 333
284 287 287 285 287 288 288 288 288 289 288 296 298 299 299 301 303 304 308 317 323 323 325 329 330 330 330 330 330 330 330 330 332 332 332 333 333 332 333 332 333 333 332 330
280 286 286 282 287 288 289 291 290 286 291 296 295 297 299 301 305 308 313 319 325 326 328 330 330 330 329 330 330 330 330 330 331 332 331 332 331 331 332 333 334 332 331 329
281 283 274 287 296 294 292 294 296 294 295 297 297 300 305 308 308 308 312 321 326 329 330 331 332 331 331 330 329 329 330 330 331 331 330 331 330 331 333 334 332 331 330 329
279 279 283 287 290 290 288 289 297 296 297 298 299 304 304 308 309 312 319 324 328 331 332 332 331 332 330 328 328 329 329 329 330 331 330 330 330 331 333 331 330 330 330 328
284 279 277 287 291 293 291 285 298 300 298 300 302 295 299 310 315 316 322 326 329 331 331 331 331 331 330 327 328 328 329 330 331 331 331 330 331 331 332 332 330 328 328 329
282 281 285 290 292 292 283 288 295 299 300 301 299 303 308 311 312 317 322 326 330 331 330 331 331 331 328 327 327 330 331 331 331 332 332 332 332 332 331 330 328 328 326 328
285 282 280 295 291 285 290 293 294 300 302 303 304 305 307 309 314 318 322 325 328 329 330 331 331 330 327 328 330 331 331 331 331 333 331 331 331 331 331 330 325 325 325 323
284 286 294 295 292 296 296 296 298 299 302 304 304 306 307 312 316 319 322 325 328 329 328 329 331 331 327 329 331 331 331 331 331 332 332 332 330 330 329 329 327 322 322 322
289 292 293 295 297 297 298 300 301 302 303 306 304 307 310 315 319 322 325 325 328 328 326 326 329 331 330 330 330 331 331 331 331 332 331 331 331 330 327 327 325 323 322 319
290 293 295 296 297 299 300 302 303 306 308 309 308 309 312 316 321 324 326 326 328 326 326 326 328 329 330 329 330 331 331 331 331 331 332 331 330 328 329 330 325 322 326 324
289 295 294 295 300 302 301 301 303 303 306 309 309 311 315 318 322 325 326 325 325 325 327 326 327 327 327 329 331 331 330 330 330 330 331 329 325 322 296 302 301 303 304 316
294 299 300 300 302 302 302 302 303 303 304 304 310 312 318 316 319 316 324 324 324 324 326 326 327 326 327 328 331 331 330 332 330 327 330 329 327 327 325 311 295 295 296 297
301 300 296 298 297 300 301 303 304 303 303 305 309 312 313 312 315 316 316 318 324 323 325 326 326 325 326 328 330 330 332 311 331 331 331 330 329 329 328 327 326 324 298 301
300 300 299 299 298 299 300 301 299 299 300 302 307 308 311 311 311 312 315 316 316 317 320 323 324 324 326 328 329 329 330 330 331 332 332 327 330 329 329 328 328 327 314 301
300 300 299 297 297 297 298 298 297 297 298 301 303 306 307 310 310 310 311 311 313 312 314 313 315 319 325 328 328 329 329 314 320 332 331 330 330 328 328 328 328 325 323 321
299 298 297 296 295 295 297 298 298 298 298 299 301 303 304 305 307 306 306 311 310 308 310 311 313 320 323 327 329 327 328 328 310 331 331 330 330 329 327 327 328 326 328 320
302 302 300 299 296 295 296 297 298 298 298 299 300 300 300 302 300 300 302 304 307 305 304 306 305 314 322 321 327 328 327 327 328 329 330 330 330 330 329 327 327 327 328 317
303 301 301 300 298 297 296 296 297 297 298 298 298 297 297 297 300 299 298 297 297 297 298 303 299 308 317 310 315 328 328 327 327 328 330 315 327 330 329 329 327 326 327 323
303 302 301 300 299 297 296 296 296 296 298 298 298 297 296 295 296 297 298 294 293 294 299 301 302 305 308 311 308 328 329 328 326 327 328 328 329 329 329 314 326 327 326 326
303 302 300 299 298 297 296 296 294 293 295 297 296 295 294 296 295 293 293 292 292 292 296 296 298 299 304 304 312 319 325 326 326 326 326 327 328 329 330 329 328 328 328 328
304 302 300 299 297 296 296 295 294 293 293 294 294 294 293 293 295 294 292 291 292 287 294 296 295 289 296 297 306 307 310 312 316 319 321 321 322 323 323 324 324 325 326 326
304 302 301 299 297 296 296 295 293 292 292 291 291 292 291 291 292 291 290 291 292 289 292 292 288 288 290 300 299 301 302 304 305 306 306 307 311 310 309 308 308 309 311 313
304 302 300 300 298 297 295 295 293 292 292 292 291 292 291 291 290 292 291 288 287 289 290 289 289 288 291 295 295 295 296 299 299 300 300 297 301 301 301 302 302 303 303 301
304 302 301 299 297 296 296 295 293 292 291 291 291 291 291 292 290 290 291 290 287 290 291 288 288 289 294 293 292 293 292 292 294 295 296 296 296 296 296 296 295 295 296 296
304 302 302 300 298 298 297 296 294 293 293 290 290 291 291 291 291 290 290 289 290 288 289 290 290 291 291 291 291 290 291 291 292 292 292 292 293 293 293 293 294 293 293 293
303 298 301 299 299 298 298 296 295 292 293 293 291 291 291 291 290 290 289 290 289 289 289 288 289 288 289 289 289 289 290 290 289 291 291 291 291 291 291 291 291 291 290 290

GFSNGP_sfc_thetae_048.txt.gz
Theta_e
290 291 291 290 289 291 290 291 287 290 291 296 299 301 302 305 305 305 307 310 316 327 326 329 332 336 337 337 336 337 335 334 334 336 337 338 337 337 337 335 335 335 335 335
287 291 290 288 290 291 291 291 291 291 291 299 301 302 301 302 304 304 307 310 316 327 326 328 331 333 334 335 335 335 331 331 334 335 336 337 337 337 335 335 336 335 335 334
283 288 288 285 289 291 292 293 292 289 294 299 299 300 301 303 304 305 309 311 315 328 326 331 331 332 334 334 334 331 329 332 334 335 335 335 335 334 334 335 337 335 335 334
283 285 277 288 295 295 294 295 297 297 299 301 301 302 304 305 305 306 309 312 315 327 331 333 333 333 335 334 331 328 329 332 333 333 333 334 334 334 335 336 335 336 335 333
283 283 287 290 292 290 288 289 297 297 300 302 304 304 304 307 309 310 317 323 325 330 334 333 333 333 334 332 328 328 330 331 332 332 332 332 332 334 336 335 336 336 335 333
286 281 279 289 293 296 293 284 295 297 301 304 303 297 301 309 312 317 319 324 326 331 335 333 334 336 333 328 327 328 330 331 332 332 333 332 333 334 336 336 335 334 332 332
285 283 287 293 296 294 283 288 294 296 298 302 300 304 309 312 313 316 319 321 325 332 332 334 336 335 330 327 327 330 332 332 333 333 334 335 336 335 335 333 334 333 331 329
287 284 282 296 293 286 294 294 295 296 299 301 304 306 310 312 314 317 320 322 327 331 332 334 335 333 329 326 330 332 333 332 333 336 334 334 336 334 334 335 334 332 330 327
286 287 296 297 294 295 296 295 296 298 304 304 304 307 310 313 315 317 323 325 328 330 332 334 334 333 327 328 332 332 332 332 334 335 334 335 334 333 332 333 332 331 327 327
290 295 295 297 298 299 299 298 300 302 303 304 305 308 311 315 316 320 326 326 328 330 332 332 333 330 328 331 333 332 332 333 334 334 333 335 333 333 331 333 331 328 326 326
291 295 297 297 298 300 300 301 300 304 306 308 308 310 312 316 318 323 327 329 330 330 332 332 333 328 330 332 332 332 333 333 334 334 335 334 334 330 332 335 329 330 329 328
290 295 296 296 299 299 298 299 300 302 305 308 312 311 313 313 317 327 329 331 331 333 333 332 330 327 330 332 332 333 333 332 332 332 333 332 331 329 297 300 301 302 301 315
296 301 299 300 299 299 298 300 302 302 303 308 310 312 312 317 326 323 331 330 332 332 332 329 326 327 330 331 333 333 332 332 331 327 330 330 330 330 327 314 296 295 298 297
303 301 298 299 296 298 298 301 302 301 304 305 309 313 316 320 322 324 327 330 332 332 330 328 326 326 329 331 332 333 333 313 331 330 329 329 330 331 332 329 327 325 300 303
302 302 301 301 298 297 299 299 298 299 301 302 306 308 312 313 315 318 324 329 329 328 330 330 329 327 328 330 331 331 332 331 330 331 331 325 328 329 328 331 330 328 317 304
302 302 301 299 297 296 297 297 296 297 299 301 302 303 309 311 312 314 317 321 322 321 324 329 330 331 330 330 330 331 330 314 318 331 332 331 327 327 328 330 331 330 326 324
300 298 299 298 296 296 296 297 297 298 298 299 299 300 304 305 308 309 312 313 312 310 312 314 316 328 330 332 332 328 329 331 309 330 331 330 329 325 328 328 329 328 330 324
304 303 302 300 297 296 296 297 297 298 297 299 299 298 299 300 300 301 305 307 308 305 306 309 310 323 328 332 333 328 328 329 329 329 330 329 329 329 327 326 327 327 330 319
304 303 302 301 298 297 298 296 297 298 299 298 298 296 296 297 299 298 300 298 295 297 299 305 303 312 321 317 314 330 328 329 328 328 329 316 330 330 329 327 326 327 329 326
304 304 303 301 300 298 297 296 297 297 299 298 296 296 295 294 295 296 296 293 293 295 300 300 306 309 315 321 307 332 330 329 328 329 329 330 330 331 331 316 326 327 328 328
304 303 301 300 299 299 298 297 295 295 297 298 295 294 295 295 293 293 293 290 292 292 297 297 300 304 310 314 323 331 332 332 330 330 330 331 331 332 332 331 330 329 329 330
305 303 301 300 300 299 298 297 295 294 294 295 295 295 294 294 295 292 292 290 292 288 294 297 296 291 299 297 314 313 316 318 319 322 326 328 329 328 326 329 330 330 330 330
306 304 302 301 300 300 299 298 295 294 292 292 293 293 292 292 292 290 287 291 292 289 293 293 288 287 289 301 303 304 305 304 305 306 306 309 309 308 308 307 309 311 314 313
306 305 302 302 303 301 298 297 296 294 293 292 292 292 292 292 290 292 291 288 287 289 290 289 290 288 292 297 296 296 298 299 298 299 299 295 300 300 300 300 301 302 302 301
307 305 304 301 301 301 301 300 299 297 295 293 291 291 291 291 290 290 291 291 287 290 292 288 288 289 293 294 293 293 293 294 295 295 295 295 295 295 294 294 293 295 296 295
308 306 305 303 302 302 302 300 298 299 298 295 293 292 291 291 291 291 290 289 290 289 291 290 291 291 291 291 291 291 293 292 292 293 293 293 292 292 292 291 292 292 292 292
308 301 305 302 303 303 302 300 299 298 298 297 295 295 295 293 292 291 289 291 290 290 290 290 291 290 291 291 291 292 291 291 290 292 291 291 291 290 291 291 291 291 290 290

GFSNGP_sfc_thetae_054.txt.gz
Theta_e
291 292 292 290 290 291 290 291 286 288 289 293 296 297 299 302 304 306 306 308 312 326 330 334 336 337 337 337 338 338 337 337 340 342 342 341 340 340 339 340 338 336 336 333
288 292 292 289 291 292 292 291 290 290 290 298 300 300 300 301 303 304 305 307 311 318 328 333 334 331 336 334 335 336 335 337 340 339 338 338 338 338 339 337 338 333 334 333
284 290 290 285 290 291 293 295 294 289 294 299 299 300 301 302 304 305 306 307 311 316 326 331 332 335 334 333 335 334 336 336 335 335 334 335 336 336 336 334 337 335 334 333
285 288 279 291 296 295 293 294 297 296 296 299 301 304 304 306 306 306 307 309 312 325 327 331 335 335 333 333 334 334 333 332 332 332 333 334 334 333 336 336 337 335 334 333
284 284 287 290 292 292 291 290 297 295 297 300 302 304 303 311 313 311 310 311 318 325 327 333 333 335 333 331 332 330 330 330 331 333 333 332 332 334 336 335 334 334 335 333
286 281 279 288 293 297 295 286 295 296 295 296 300 296 302 307 310 314 316 319 321 324 325 333 332 336 333 331 330 329 329 330 333 334 333 332 334 336 336 335 335 335 334 333
286 284 287 291 297 297 284 287 294 296 295 297 295 299 303 307 310 312 316 316 319 324 326 328 333 336 332 330 329 330 330 331 334 334 335 335 336 336 334 334 334 333 331 330
289 285 282 297 296 287 293 296 296 297 298 297 300 302 304 306 308 311 312 315 319 325 327 333 333 334 331 329 331 331 330 333 333 334 331 334 335 335 335 334 332 331 328 327
289 292 300 302 298 299 299 297 298 297 298 299 298 300 302 304 307 310 312 316 321 325 325 331 333 334 331 331 332 330 333 333 333 334 333 334 334 334 332 332 331 329 325 324
295 297 298 300 300 300 300 298 299 299 298 299 298 300 302 305 308 310 313 317 325 326 325 327 333 334 331 332 332 334 333 331 334 334 331 333 333 333 334 332 331 330 329 325
295 298 299 299 299 298 298 298 296 297 297 299 299 301 304 306 310 311 314 318 326 325 327 327 333 332 331 331 333 334 333 331 331 329 331 326 321 319 332 320 325 331 332 327
293 299 299 297 298 299 297 296 295 295 297 299 301 302 304 307 313 314 315 320 322 326 328 329 331 327 329 332 334 333 330 331 328 329 329 328 328 321 296 297 296 300 301 318
298 301 302 300 300 300 298 296 296 296 298 298 302 306 309 311 314 316 320 321 322 325 329 332 330 327 328 332 333 332 329 329 330 325 329 328 329 327 321 310 297 295 295 302
302 303 299 299 296 298 298 296 297 298 300 301 302 304 310 313 316 320 321 323 325 327 329 331 327 326 328 332 332 329 330 315 328 331 328 330 327 327 326 323 322 319 299 300
302 302 301 300 299 297 298 296 295 296 298 299 300 302 307 313 318 319 324 329 329 329 330 331 325 327 330 332 331 332 328 330 331 331 329 327 330 328 327 327 326 320 315 304
301 301 300 297 296 296 296 293 293 295 297 297 298 300 304 309 314 315 319 327 324 323 325 329 326 328 329 333 331 332 331 314 314 327 328 330 329 327 329 328 327 323 322 316
299 297 296 295 295 296 294 293 294 296 296 297 296 298 302 304 307 311 314 316 315 316 317 317 318 324 330 333 331 329 328 326 308 325 326 329 329 327 330 329 327 325 324 317
302 300 299 297 296 295 295 294 295 296 295 297 296 295 297 299 298 303 307 312 314 311 312 314 314 323 331 331 332 329 325 326 327 325 325 329 328 328 329 329 328 327 323 313
301 299 299 298 298 297 296 294 295 296 296 296 296 293 293 295 297 298 299 297 298 301 303 309 302 317 324 314 318 329 325 325 327 323 327 312 325 327 328 326 328 326 323 321
301 300 300 299 299 297 296 296 295 295 295 295 294 293 292 291 293 297 296 293 294 296 302 303 309 313 319 317 310 329 325 325 326 323 325 325 326 325 327 317 326 325 325 324
301 301 300 299 298 299 296 295 295 294 294 295 292 291 291 293 291 291 293 291 292 293 298 297 300 303 313 313 326 329 328 327 328 324 325 324 323 326 325 328 325 326 328 328
302 300 300 300 299 297 298 295 294 293 293 292 293 292 290 290 292 291 290 290 291 288 295 297 296 290 301 301 313 319 324 327 325 321 321 319 315 315 318 320 318 316 318 318
303 302 301 300 300 300 299 296 294 293 292 291 290 290 290 290 290 288 288 290 291 288 293 293 289 291 292 305 306 307 308 310 313 314 313 312 309 309 305 303 306 306 306 304
305 303 303 303 302 301 299 298 296 294 293 292 291 291 290 291 290 292 292 289 288 290 290 289 290 289 292 297 298 300 302 302 300 300 300 297 302 302 301 300 300 299 297 296
306 305 303 304 302 299 301 300 299 296 293 292 292 292 292 292 289 290 293 292 288 292 293 289 289 290 294 294 294 294 295 297 297 296 296 295 295 294 296 297 296 295 295 295
305 304 303 305 304 303 301 300 299 298 296 292 291 291 292 293 292 292 293 291 293 292 294 293 293 293 292 292 292 292 293 293 293 294 294 294 294 294 294 294 294 294 293 292
307 302 305 303 302 302 301 300 299 299 299 297 293 293 293 293 292 292 291 293 293 294 295 294 294 293 294 293 292 292 292 291 291 292 292 291 291 291 291 291 291 290 290 289

GFSNGP_sfc_thetae_057.txt.gz
Theta_e
289 291 291 289 289 289 287 288 284 287 288 291 294 296 298 301 301 301 301 303 304 316 322 325 327 329 335 337 340 338 338 337 337 338 337 335 332 332 330 330 329 329 329 328
287 290 290 288 290 291 290 291 290 290 290 296 298 298 298 300 300 299 301 305 305 316 320 325 327 330 334 334 335 337 337 336 336 336 334 333 329 328 329 328 327 327 327 325
281 288 288 282 289 291 291 292 291 287 291 296 297 298 298 299 301 302 309 309 311 317 321 325 325 332 330 332 334 335 336 336 334 333 331 329 329 328 326 327 328 327 328 323
281 283 273 289 294 294 291 292 293 292 293 295 296 298 301 305 304 304 306 309 314 316 320 323 329 328 330 332 333 334 334 333 331 330 329 328 326 326 329 329 328 327 328 324
281 277 284 288 291 289 288 287 294 293 294 295 297 298 299 303 305 305 306 308 315 318 321 323 324 329 330 331 332 331 329 328 328 330 328 327 325 327 328 328 324 324 327 321
285 279 272 288 293 296 295 283 294 294 294 294 294 289 293 300 303 305 306 308 311 318 322 322 326 329 327 328 327 325 326 327 330 329 328 328 326 327 325 325 324 327 327 324
283 281 284 292 294 298 281 283 292 295 295 295 293 295 297 301 302 305 306 308 309 315 321 323 328 329 327 326 324 325 327 328 331 330 327 327 327 325 325 325 326 325 324 322
283 280 275 296 295 286 291 294 296 297 296 294 295 297 300 300 301 302 304 306 308 310 321 324 329 329 328 324 324 326 330 330 329 328 331 329 327 325 325 325 324 321 322 323
287 286 296 298 295 297 297 295 297 294 295 295 295 296 298 299 300 302 304 307 308 310 315 324 326 329 328 324 325 329 328 327 327 327 329 328 326 325 324 325 323 319 321 323
289 295 296 298 298 298 298 296 296 297 294 295 294 297 298 299 300 302 305 308 309 311 323 322 326 331 331 328 330 329 327 326 327 326 327 327 327 326 325 324 323 320 319 321
291 295 296 297 297 297 297 298 298 297 296 295 296 297 297 298 300 303 305 309 311 317 322 323 326 330 330 330 330 327 327 327 326 325 323 314 308 309 321 315 317 323 322 321
287 296 295 295 298 299 297 296 296 295 294 296 297 297 299 299 302 303 306 309 312 320 322 324 328 329 327 330 330 328 326 325 326 324 321 320 316 312 295 295 297 303 307 317
296 301 299 299 300 300 297 296 296 295 296 296 298 300 302 303 305 308 310 313 314 321 323 327 328 329 330 331 330 327 325 324 325 324 325 323 320 316 313 306 296 295 295 299
303 298 296 298 295 298 297 297 296 296 297 299 300 301 302 304 309 311 313 315 320 322 323 324 325 327 329 330 329 327 326 314 326 326 326 324 324 319 318 317 314 310 297 296
300 298 296 297 297 296 298 295 293 294 296 297 299 298 301 304 307 314 319 324 323 323 324 326 328 324 329 330 328 327 326 325 325 327 327 322 324 322 320 320 314 310 307 301
298 297 296 295 295 295 294 293 292 294 295 297 296 296 299 303 308 312 315 321 322 319 323 326 325 327 329 329 328 326 325 314 318 326 323 325 324 322 321 319 315 314 314 308
293 293 294 293 294 294 294 293 293 295 295 295 295 296 297 299 301 302 308 314 311 311 311 311 312 326 329 328 327 326 322 318 308 325 324 324 325 324 323 320 318 317 313 310
297 296 296 295 295 295 294 294 295 294 293 294 295 294 293 294 297 298 300 305 307 307 304 305 306 322 327 325 324 323 322 322 324 325 324 325 325 327 324 322 320 317 314 308
298 297 297 297 297 296 295 295 294 295 294 294 293 292 291 291 294 298 297 295 295 298 298 301 298 313 319 310 313 322 322 322 323 321 326 311 324 325 325 323 321 317 316 315
298 299 298 297 298 296 294 295 295 293 294 293 292 291 291 290 291 294 295 291 292 293 299 299 303 313 314 316 314 326 319 322 322 322 322 324 324 325 324 313 320 318 317 316
299 299 297 296 296 296 295 294 294 292 292 293 291 290 290 291 291 291 292 290 290 293 296 299 302 308 307 308 321 324 323 322 322 321 319 318 322 322 322 322 322 322 321 320
299 298 298 297 296 296 295 294 294 292 291 291 291 291 290 289 290 292 291 289 291 289 295 296 298 296 299 299 309 314 316 315 315 315 313 314 318 314 315 318 316 314 312 309
300 300 300 299 298 296 295 294 293 292 291 290 290 290 290 289 290 289 290 291 291 289 293 292 288 291 292 302 303 303 303 304 305 305 304 305 302 301 301 301 300 300 301 302
301 301 301 301 300 298 295 294 293 292 292 292 291 291 290 289 290 292 292 290 289 290 290 289 289 289 292 297 298 300 300 300 300 300 299 297 299 298 297 296 294 295 294 294
303 302 301 299 297 296 297 296 294 293 292 291 291 291 292 292 290 291 293 293 289 292 292 289 288 290 294 294 294 294 295 297 297 295 296 295 295 294 295 294 293 292 291 291
302 299 300 300 298 297 296 296 295 294 293 290 291 291 292 292 293 293 293 292 293 291 293 292 292 292 292 292 292 292 292 293 294 293 293 294 293 293 292 292 291 291 290 290
303 299 299 297 298 297 296 295 295 294 293 292 291 292 292 293 292 293 292 294 294 293 293 293 293 292 292 292 291 291 290 290 289 290 290 290 290 289 289 289 289 289 289 288

GFSNGP_sfc_thetae_060.txt.gz
Theta_e
288 289 290 289 288 289 287 287 283 285 286 289 292 295 295 300 302 301 303 303 303 304 308 309 321 324 327 331 335 337 336 334 333 334 334 334 332 333 333 336 335 334 330 329
285 290 289 286 288 291 290 291 289 288 287 293 296 298 298 299 301 301 302 305 306 308 316 320 321 322 326 331 333 336 334 333 334 333 334 334 332 328 328 327 327 326 325 325
281 287 287 282 288 289 290 292 290 285 289 293 293 295 295 297 299 302 303 304 306 306 314 318 321 327 326 329 333 333 333 334 334 333 332 331 328 327 324 323 323 321 320 321
283 282 274 287 293 293 290 291 292 292 293 294 294 295 296 298 298 299 300 302 305 305 308 316 317 319 322 325 330 333 333 333 333 332 329 328 326 324 323 323 323 322 321 319
281 280 284 288 291 289 288 287 294 292 293 294 295 295 294 301 300 299 300 302 304 306 308 313 319 322 321 320 321 333 331 331 331 329 327 325 323 323 324 326 327 325 321 316
284 278 270 283 292 295 295 283 293 293 292 292 293 287 290 297 299 299 301 301 303 305 308 310 321 325 320 322 327 329 330 329 329 328 326 324 323 324 326 326 326 324 319 316
282 280 284 291 294 297 282 283 292 293 293 293 291 292 295 297 297 299 300 301 303 305 307 310 322 322 319 323 327 329 329 328 327 327 324 324 324 326 323 325 325 322 319 315
284 281 277 295 294 288 291 293 292 294 297 296 295 295 294 295 296 298 299 301 303 304 307 310 323 321 319 324 327 326 328 327 326 325 327 326 324 323 324 324 322 320 320 319
286 281 291 295 294 296 294 293 295 296 295 294 294 293 293 294 296 298 299 301 303 305 308 313 322 322 319 322 325 327 327 326 325 326 326 325 324 323 323 323 321 321 320 319
289 292 294 296 297 297 297 295 296 295 293 296 293 294 294 296 296 297 299 300 303 305 308 313 323 324 324 326 328 327 325 325 326 325 323 324 325 325 323 321 319 320 321 320
289 294 294 296 297 297 297 297 296 296 294 295 294 295 295 296 297 298 299 301 304 305 309 315 322 323 325 328 328 327 326 325 324 324 320 313 307 313 323 318 318 320 318 320
289 294 293 293 297 298 296 297 297 295 295 295 296 295 296 296 298 299 300 302 304 307 311 321 322 322 326 329 327 326 325 325 323 320 317 315 313 307 294 296 297 299 306 315
295 299 298 299 299 299 298 296 296 296 295 295 296 298 299 299 301 304 305 305 307 311 314 322 322 320 325 329 327 327 325 322 321 319 318 317 317 314 309 301 294 296 302 301
302 301 297 297 294 297 296 297 296 295 296 297 298 300 300 300 304 306 308 310 312 315 321 322 323 323 327 329 327 326 326 314 322 322 321 319 317 315 314 314 312 309 297 297
301 297 295 296 295 295 297 295 293 293 295 295 298 297 298 299 302 306 313 318 317 317 322 324 323 325 329 328 326 324 323 324 325 323 322 319 318 317 316 314 312 307 306 300
297 296 295 294 294 294 295 293 291 293 293 295 295 295 297 300 302 303 305 315 320 320 323 320 321 324 327 327 326 324 324 314 317 323 322 321 319 318 315 313 313 314 313 308
291 292 292 292 293 294 293 293 293 293 293 293 294 294 295 296 299 299 300 304 309 307 308 308 308 310 323 328 326 324 323 319 306 322 324 322 320 319 316 314 315 315 313 309
295 295 294 294 294 294 293 294 293 293 292 293 293 293 292 292 294 296 298 298 306 306 302 304 305 302 315 328 324 324 324 324 322 323 323 323 322 320 318 316 316 313 312 308
296 295 295 296 296 295 294 293 293 293 293 292 292 291 291 291 292 296 296 297 295 301 298 302 298 309 320 310 318 322 320 322 324 322 323 311 321 322 319 318 315 314 312 310
296 296 296 295 296 295 293 294 294 292 292 292 291 290 290 290 291 293 294 293 292 292 297 300 305 312 311 314 308 320 321 322 321 322 321 325 322 322 318 308 315 315 314 313
298 297 296 295 295 295 294 293 293 291 292 292 290 289 289 290 291 290 289 290 291 291 297 299 302 306 305 309 318 321 320 320 321 322 322 323 320 319 318 317 317 317 316 313
297 297 296 296 294 293 294 293 293 292 291 291 291 290 289 289 290 291 290 289 291 287 295 297 297 294 299 297 311 310 312 313 312 315 320 320 319 318 318 318 316 314 308 305
297 298 298 297 294 293 293 293 292 292 290 290 289 289 289 290 291 289 288 291 291 289 294 294 291 293 295 304 304 303 303 303 304 305 307 306 306 304 302 302 303 302 300 298
299 298 297 297 296 294 291 292 292 291 291 291 291 291 290 290 291 293 292 289 287 289 290 291 292 292 295 299 301 300 300 300 299 299 299 296 298 298 298 295 294 293 292 291
298 297 297 297 294 293 292 292 292 292 291 291 291 292 292 293 292 293 293 292 288 291 292 289 289 290 294 295 295 295 296 296 296 298 295 295 295 294 294 294 292 292 290 291
298 295 294 295 296 294 294 293 291 291 292 290 291 292 293 294 294 294 293 291 292 290 291 291 291 291 291 291 291 292 292 292 293 292 293 293 292 292 291 291 290 290 290 290
302 297 294 293 293 293 294 293 292 290 292 292 291 292 293 293 293 293 291 292 292 292 292 292 292 290 291 290 289 289 289 289 289 289 289 289 289 288 288 288 288 288 288 287

GFSNGP_sfc_thetae_063.txt.gz
Theta_e
286 288 288 287 287 288 286 287 283 285 285 289 291 292 294 296 299 300 302 304 305 305 306 307 315 318 321 324 329 330 331 331 332 334 335 337 337 336 336 337 335 334 334 334
284 288 288 286 288 288 288 289 289 289 287 294 294 294 294 296 298 298 303 302 302 304 306 307 310 317 323 325 330 332 332 331 332 333 334 337 338 336 334 334 332 332 331 329
279 286 285 281 286 288 290 291 289 285 289 293 292 293 293 294 296 297 298 299 301 302 305 305 306 313 317 319 325 329 331 332 332 332 331 330 330 331 332 329 330 328 324 323
281 285 273 286 292 292 289 290 291 291 292 294 294 295 295 297 296 297 297 299 300 301 303 303 306 310 318 319 319 320 329 331 332 331 329 329 328 327 325 327 324 320 318 318
282 277 282 287 290 288 286 286 292 290 293 294 294 294 293 298 298 297 297 298 299 302 303 304 306 310 321 319 320 322 323 331 331 330 327 327 325 322 321 321 319 317 317 315
284 279 271 281 291 294 293 283 293 293 292 291 292 287 290 295 298 296 296 298 298 300 303 304 306 309 317 317 317 316 318 330 331 329 327 325 323 322 322 322 319 318 316 316
282 280 281 290 293 295 282 283 291 292 292 291 289 292 295 297 297 296 296 297 300 301 301 304 308 310 318 316 315 323 326 331 329 328 326 325 322 323 323 323 320 317 315 315
282 280 275 293 293 288 291 293 292 293 293 292 294 295 294 295 295 295 295 296 299 299 301 305 309 315 317 314 319 322 330 328 326 325 325 324 322 323 325 323 320 316 316 315
283 280 288 293 292 297 299 296 295 293 295 294 293 292 294 294 295 295 296 297 299 300 301 305 310 319 318 316 317 318 326 324 323 323 323 323 322 322 321 321 320 319 318 316
285 288 291 294 296 297 299 297 297 295 294 293 292 293 294 294 295 296 297 297 299 300 302 304 309 320 320 319 319 324 323 322 323 322 321 322 323 323 321 320 321 320 318 316
285 290 293 295 297 298 297 298 297 296 295 295 294 295 294 295 296 297 298 298 299 300 302 305 311 320 321 322 325 324 323 323 322 321 321 316 308 314 321 318 319 321 320 317
286 294 294 294 298 298 297 296 297 295 294 296 295 294 296 296 297 298 299 300 301 303 305 308 314 321 322 324 327 325 323 322 321 318 317 314 313 308 294 295 299 301 304 313
292 297 298 299 300 298 295 294 296 296 295 293 295 296 297 297 300 301 302 303 304 304 307 311 317 321 322 323 327 326 324 321 319 316 317 317 316 316 311 301 295 294 297 297
300 299 296 296 293 295 294 296 297 295 295 295 296 297 298 298 300 301 303 306 308 309 310 315 322 321 324 326 327 325 324 309 320 319 318 319 317 316 315 315 315 311 296 297
298 297 294 294 294 294 296 296 292 291 293 294 295 296 297 297 297 301 305 307 309 315 313 319 320 321 328 329 326 324 321 321 321 320 318 314 315 314 314 315 313 308 304 298
297 295 293 293 293 295 295 292 291 291 292 293 294 294 295 296 298 301 303 305 310 315 316 319 320 322 322 323 325 324 323 308 314 320 317 317 316 314 314 312 311 313 313 306
291 290 292 292 293 294 292 292 291 292 292 292 293 294 294 294 296 298 300 303 308 308 308 308 308 311 315 317 323 324 319 318 304 321 319 318 317 314 314 315 314 314 311 307
294 294 293 293 294 294 293 292 292 292 291 292 293 293 292 292 293 295 296 301 307 302 303 306 304 309 312 317 324 322 321 320 322 322 320 319 318 315 316 316 315 313 311 302
296 295 295 294 295 294 294 292 292 292 292 292 291 291 291 292 292 294 296 296 296 300 298 304 301 311 317 316 319 323 323 321 321 321 321 308 316 316 316 315 313 312 312 309
295 296 296 295 296 295 293 293 291 291 292 292 291 290 290 291 291 292 294 292 292 293 299 303 307 308 311 313 306 320 321 322 321 320 320 320 318 317 314 307 313 313 311 312
296 296 295 294 294 294 294 293 292 290 291 291 290 289 290 291 292 290 289 291 291 292 297 299 301 301 306 305 314 318 322 321 320 321 320 320 316 316 314 314 314 313 312 308
297 296 295 294 294 293 293 293 292 291 290 290 291 291 290 290 291 291 291 288 291 288 296 298 299 292 298 296 309 311 315 316 319 321 320 319 317 315 314 315 313 309 304 300
297 297 296 294 294 293 293 293 292 291 290 290 290 290 291 290 291 288 287 290 291 289 295 296 291 291 293 305 305 304 303 306 307 309 309 309 309 308 305 303 300 298 296 295
297 297 296 295 295 293 291 292 293 292 292 292 292 292 292 291 291 293 292 289 288 289 290 291 290 290 296 300 300 302 302 300 302 303 302 298 301 298 295 293 292 292 291 291
296 295 297 295 293 291 291 291 292 292 292 291 292 293 293 294 291 292 292 292 288 290 291 289 289 290 294 295 295 295 297 298 298 297 298 297 297 295 293 292 292 291 291 290
298 292 295 294 292 292 291 290 290 291 292 291 291 293 293 293 293 293 292 290 291 290 291 291 291 290 290 290 290 290 291 292 293 293 295 295 293 292 291 291 290 289 289 288
300 293 295 292 292 292 291 290 290 289 292 292 291 293 293 293 292 292 291 292 291 291 290 290 290 289 289 289 289 289 288 288 288 289 289 289 289 289 288 288 287 287 287 286

GFSNGP_sfc_thetae_069.txt.gz
Theta_e
289 290 290 289 288 289 288 289 284 287 288 292 296 297 299 301 302 301 301 302 304 304 304 304 305 306 308 309 310 312 311 312 319 335 328 332 336 340 341 342 343 343 344 346
286 289 289 287 289 290 290 290 289 290 289 297 299 300 299 300 301 300 301 301 304 304 303 302 303 304 305 307 309 312 311 312 318 336 328 333 337 339 341 341 342 343 344 344
282 287 287 283 287 289 290 292 291 288 293 298 297 298 299 300 301 300 301 302 303 303 302 302 304 302 304 305 308 309 310 312 320 335 332 334 337 339 338 338 339 341 344 344
282 284 276 287 294 294 292 293 295 294 296 298 298 300 300 301 301 301 302 302 303 302 302 303 302 302 304 305 307 307 309 313 322 333 334 336 337 335 337 337 338 340 341 344
280 280 285 288 292 292 291 291 296 295 296 298 300 300 299 303 304 303 303 303 303 302 301 301 302 303 302 303 306 307 309 317 322 331 332 332 332 335 337 336 337 338 341 336
284 279 278 288 292 297 296 287 297 297 297 297 298 290 295 303 304 303 304 305 303 303 302 302 302 304 303 304 306 307 314 321 323 329 332 333 336 336 335 335 335 336 328 336
284 282 287 292 295 298 284 288 297 298 298 298 296 297 301 303 304 305 304 304 304 302 301 302 303 303 303 305 305 310 315 323 325 330 332 333 332 332 332 331 332 326 322 323
285 282 280 297 296 289 295 298 298 299 299 298 298 300 301 302 303 303 302 302 301 301 301 303 304 303 304 304 309 312 319 322 328 333 332 330 329 329 329 329 326 322 323 321
287 289 297 299 297 299 299 297 298 298 299 297 298 298 300 300 301 300 299 299 300 300 301 304 305 306 304 306 309 311 322 322 329 330 328 328 326 325 325 325 323 323 324 320
289 292 294 296 298 299 300 300 301 301 301 299 297 298 297 298 298 297 298 297 299 300 301 303 306 307 306 308 311 317 320 321 328 325 325 327 326 327 326 325 326 325 322 320
290 293 294 295 297 300 301 301 300 299 298 297 297 296 296 296 295 295 296 298 300 300 301 304 307 306 309 312 314 320 319 323 323 324 324 319 319 328 331 333 325 325 325 324
287 293 292 294 300 302 298 296 296 296 296 297 296 295 295 294 295 296 297 299 300 302 303 305 307 308 312 312 315 317 319 322 321 319 318 320 318 312 295 300 300 301 306 318
292 297 297 300 302 300 296 296 297 296 295 293 295 295 294 294 296 297 298 299 300 301 305 306 308 310 312 313 316 318 320 322 321 317 319 321 321 319 312 302 295 294 296 299
300 301 297 297 295 298 297 298 296 295 294 294 294 294 294 294 296 296 296 298 300 301 303 306 309 311 316 317 322 319 325 308 321 323 325 325 325 322 321 318 316 313 296 300
299 300 300 298 297 297 298 295 293 292 292 292 294 293 294 293 293 295 297 298 300 302 304 307 310 313 319 320 322 321 321 323 326 326 326 323 324 323 323 321 319 312 307 299
298 300 298 295 294 296 296 293 290 290 291 291 292 292 293 294 294 295 296 298 298 299 304 310 314 319 325 327 326 324 323 309 318 325 322 322 323 322 321 319 318 319 318 308
299 296 295 294 294 295 293 292 291 291 291 291 291 293 293 293 293 293 294 297 299 303 306 307 312 318 325 328 327 326 323 322 307 324 321 321 321 320 320 320 320 319 314 307
303 299 297 296 295 294 292 291 290 290 290 291 292 292 291 291 291 292 294 297 299 304 300 299 304 310 324 326 327 327 326 326 328 326 322 320 320 320 320 319 317 314 309 302
302 299 298 297 296 294 292 289 290 291 291 290 291 291 291 292 292 292 295 294 293 295 296 297 297 314 325 319 323 329 329 328 325 321 321 310 319 321 319 317 314 313 312 314
302 299 298 296 297 294 292 291 291 291 291 291 292 291 290 291 291 291 292 292 291 293 293 300 305 318 325 319 313 330 329 328 322 320 320 319 320 318 316 307 314 315 316 318
300 299 297 296 295 295 294 293 292 290 290 292 290 290 290 291 291 291 288 289 291 291 294 297 304 313 321 321 324 329 329 328 325 319 318 317 316 316 315 315 315 314 312 308
299 298 296 295 295 295 294 294 293 291 290 290 290 291 290 289 289 290 291 288 291 287 294 297 302 297 308 298 330 330 329 327 322 320 318 317 316 316 315 312 310 307 305 301
299 298 297 295 295 295 295 293 293 292 289 290 290 289 289 289 289 288 287 289 291 288 291 293 292 293 293 320 323 326 324 321 320 318 317 318 316 311 307 305 302 300 298 296
298 298 298 296 296 295 292 293 293 293 292 290 291 291 289 288 289 291 292 289 287 289 288 288 291 291 296 307 309 309 311 309 309 309 306 299 303 302 300 297 294 293 292 291
296 298 297 296 294 293 293 293 293 292 292 290 289 291 291 292 289 290 290 289 287 289 289 288 289 289 296 299 301 301 302 303 303 302 302 300 299 297 296 295 293 292 291 289
295 295 298 298 297 294 293 294 294 292 292 291 290 291 291 291 291 290 290 288 288 287 288 288 289 291 291 292 293 294 296 296 297 295 295 295 294 293 292 291 290 289 288 287
292 292 295 297 298 296 294 292 293 293 292 291 290 291 290 290 290 290 288 289 289 287 287 287 287 288 289 289 289 289 289 289 289 290 290 289 289 289 289 288 288 287 286 286

GFSNGP_sfc_thetae_072.txt.gz
Theta_e
291 291 291 290 290 291 290 291 287 290 291 295 299 300 302 304 305 304 305 306 307 307 309 310 310 309 309 309 310 313 314 315 318 322 324 325 334 339 337 341 342 345 346 345
288 290 291 288 291 292 292 292 292 293 293 300 302 303 303 303 304 304 305 306 307 308 308 308 308 308 309 308 309 312 312 312 318 322 321 323 333 337 338 341 346 347 346 344
284 290 290 286 290 292 293 294 294 290 296 301 301 301 302 304 304 304 305 306 307 308 309 310 309 309 308 308 309 307 309 313 316 319 319 322 331 334 338 347 352 350 349 346
285 287 279 291 296 296 294 296 298 298 299 301 300 302 304 306 305 305 306 307 308 309 309 310 310 309 308 307 305 306 310 312 316 317 317 321 333 334 345 349 351 350 350 349
283 283 288 291 295 294 293 294 299 298 299 301 302 301 302 306 306 306 307 308 309 310 309 309 308 308 307 305 304 305 308 313 315 316 317 321 333 340 347 346 348 349 347 347
286 281 280 291 296 299 299 289 300 300 299 299 301 294 298 305 306 305 307 308 308 309 308 308 307 308 306 304 305 307 310 313 312 314 318 321 334 340 343 341 342 344 345 348
285 283 289 296 298 300 286 290 300 300 300 299 296 298 303 304 305 307 307 309 308 307 306 306 307 308 305 305 305 307 309 312 314 314 321 329 335 336 337 339 340 340 340 341
287 284 282 299 298 291 297 302 301 301 300 300 301 302 304 304 304 304 304 305 305 304 304 305 306 305 305 306 309 310 311 311 314 319 328 332 338 338 338 336 332 332 330 333
291 291 300 301 300 300 300 298 302 300 302 301 301 300 301 301 301 302 302 303 304 302 303 304 305 306 306 308 311 313 313 318 322 327 334 332 333 331 331 333 330 329 331 323
291 295 296 298 300 301 301 300 302 302 300 299 298 299 299 300 300 300 299 299 299 300 301 302 304 306 309 311 312 311 313 317 326 328 330 330 330 330 329 330 331 333 327 325
294 296 294 297 299 301 302 303 301 300 300 299 297 295 296 296 297 297 298 299 299 299 300 302 305 307 311 314 314 315 315 322 322 328 328 324 321 326 329 333 328 328 330 332
287 292 290 294 300 302 300 300 300 297 297 296 296 294 295 295 297 297 296 298 298 300 301 304 305 308 312 315 318 315 314 320 322 319 317 319 318 314 298 306 303 303 309 323
289 294 295 300 302 302 299 298 299 299 296 294 295 295 295 295 296 296 297 298 299 301 302 305 307 309 313 317 318 312 317 320 319 318 321 322 323 320 316 308 296 295 297 302
298 301 299 301 298 300 300 299 300 297 295 294 294 295 294 294 295 295 296 298 301 301 302 305 307 311 315 316 316 317 316 308 321 323 324 325 324 324 325 325 321 316 299 305
297 300 301 302 300 299 299 298 293 292 292 292 293 293 294 293 294 295 297 299 299 300 302 305 308 312 316 316 317 319 319 322 323 325 326 324 330 329 329 328 325 317 311 302
298 301 300 298 296 297 296 293 291 290 290 291 292 293 294 295 295 296 297 298 297 299 301 304 308 315 317 319 320 320 321 311 316 328 329 329 328 326 325 324 323 324 321 311
297 296 297 295 295 294 292 291 291 290 290 291 291 293 294 294 295 294 294 296 298 300 304 303 304 307 309 322 320 326 324 325 311 327 328 327 326 325 326 326 325 324 321 317
301 300 300 296 296 293 292 292 291 291 290 291 291 292 292 292 291 292 293 296 298 300 303 299 300 304 325 326 326 325 326 327 328 327 327 326 327 328 327 325 325 321 316 316
301 301 299 296 297 294 292 292 292 292 291 291 291 291 291 292 292 292 293 296 292 293 297 296 297 312 328 323 325 329 328 326 327 327 329 315 325 327 325 325 323 318 317 314
302 301 298 298 297 295 293 293 292 291 291 291 291 290 290 290 291 291 291 291 292 293 292 297 306 325 330 323 312 330 330 329 328 327 327 325 323 322 322 314 321 317 317 319
301 300 297 296 297 295 295 294 292 290 289 290 290 289 290 289 289 291 288 288 291 291 294 299 309 320 330 325 325 330 331 329 328 325 322 321 319 320 318 318 317 316 313 311
301 300 299 297 296 296 295 295 294 292 289 289 289 289 288 288 288 290 291 288 290 287 293 300 305 298 319 299 331 331 330 328 322 322 321 320 318 317 315 313 310 308 309 308
298 300 300 298 297 296 297 295 294 293 290 288 287 288 286 287 289 287 286 289 290 288 293 295 290 292 296 332 332 330 326 323 321 321 321 319 316 313 309 305 304 302 304 302
297 300 301 301 299 297 294 296 296 295 294 291 289 290 286 286 288 289 289 288 286 288 290 290 292 291 296 314 319 318 320 320 317 312 309 302 310 306 303 301 299 297 295 294
295 295 299 301 298 296 296 296 296 295 295 293 291 290 289 290 288 288 290 289 286 288 290 288 289 291 299 303 304 306 307 308 309 308 307 304 302 300 298 297 294 293 292 293
293 293 296 299 299 299 297 296 294 294 294 293 292 290 290 290 289 289 289 287 287 286 288 290 291 293 294 293 295 297 299 299 300 299 298 297 295 293 292 292 291 290 289 287
291 290 294 297 298 299 299 296 295 294 293 293 293 292 291 290 289 288 286 287 285 285 287 288 289 288 290 290 291 291 291 292 292 293 293 292 291 290 290 289 288 288 287 286

GFSNGP_sfc_thetae_075.txt.gz
Theta_e
292 293 293 292 292 292 291 293 288 291 291 296 299 301 303 305 305 306 306 307 308 309 311 312 313 313 313 313 313 313 312 311 313 319 320 323 327 330 332 335 344 340 341 345
289 292 292 290 291 292 293 292 292 294 293 299 301 302 301 303 304 305 305 306 308 310 311 311 312 313 313 313 313 314 311 310 312 314 316 321 326 330 330 333 344 341 341 343
286 291 291 287 292 293 294 295 294 289 294 299 299 300 303 305 305 306 306 307 308 309 311 312 313 314 314 314 314 312 311 310 312 313 313 318 323 326 329 334 343 343 345 347
286 289 280 291 298 297 294 296 297 297 298 300 302 305 306 307 307 306 307 308 310 310 311 313 314 314 314 313 312 311 310 310 310 309 312 317 321 325 331 334 341 343 347 352
284 284 289 292 296 296 294 294 300 300 299 301 303 304 304 307 307 307 307 309 310 310 311 313 314 317 313 311 310 309 308 308 307 307 308 316 321 326 330 336 340 344 348 350
288 282 280 293 298 301 300 289 300 300 300 301 300 294 299 306 308 308 309 309 307 310 312 312 315 315 312 309 308 308 308 308 307 309 312 317 321 323 329 334 340 346 348 349
287 284 290 298 300 301 288 291 301 301 301 301 298 300 304 305 305 307 307 308 309 308 308 313 313 314 309 308 308 309 307 308 309 311 314 320 322 320 328 331 341 344 345 347
289 285 283 300 299 292 299 303 302 302 302 300 301 302 303 303 303 304 304 305 306 305 306 309 310 309 307 307 309 309 310 312 313 316 318 321 319 318 321 330 336 342 342 341
292 292 301 303 302 304 303 302 303 303 302 301 300 301 302 302 303 303 304 304 306 305 305 307 307 306 304 306 308 309 312 313 313 315 315 315 316 316 321 332 332 334 335 332
293 297 298 301 303 303 302 302 303 304 302 302 300 300 299 300 300 301 301 301 302 303 303 302 304 305 305 307 308 309 311 313 312 311 313 319 316 320 330 331 330 332 331 328
295 297 297 298 300 302 303 301 302 303 302 300 299 298 300 297 297 298 299 300 301 300 300 301 304 305 307 307 309 309 311 312 312 314 313 314 318 328 332 333 332 336 337 334
287 293 293 294 301 300 299 300 300 300 300 302 299 298 298 296 298 298 298 299 299 300 300 302 303 305 307 309 310 312 312 314 315 320 320 321 318 311 298 301 302 305 313 326
289 294 294 297 300 302 300 300 300 301 300 295 297 296 295 295 296 296 297 297 297 299 300 302 304 306 308 311 313 313 317 314 316 319 321 322 321 318 314 307 300 298 302 305
297 298 296 299 299 300 299 300 298 296 296 294 294 295 295 294 295 295 295 297 298 299 300 302 304 306 311 313 316 317 316 306 315 323 323 323 324 326 327 325 322 319 299 303
296 296 299 302 300 296 298 295 294 292 292 291 292 292 294 294 294 295 297 298 298 299 299 301 304 308 312 315 317 318 317 318 323 325 326 324 328 329 328 327 323 315 311 302
295 300 301 298 295 297 294 292 291 291 291 291 292 292 293 294 295 296 297 298 296 296 299 300 303 309 314 316 318 319 319 308 313 327 328 330 326 329 328 325 324 323 317 310
296 298 298 295 295 295 291 291 291 290 291 291 290 292 293 293 294 294 294 296 296 297 301 304 306 312 312 311 319 319 321 321 306 328 329 328 328 328 327 327 325 322 318 314
301 302 301 297 296 294 293 292 291 291 290 290 291 291 291 292 291 292 293 295 297 299 300 304 305 302 306 309 313 315 323 324 327 328 329 329 330 329 328 326 324 322 323 318
301 301 302 297 297 295 294 293 292 291 291 290 290 289 291 291 289 291 294 293 295 292 295 294 293 294 301 307 309 320 326 326 327 329 329 316 327 329 327 323 323 322 322 322
302 302 301 298 299 296 295 295 294 292 290 289 289 289 288 288 287 290 291 290 293 290 292 292 296 316 327 315 309 329 328 328 328 329 329 328 328 325 323 314 323 324 324 322
300 300 300 301 298 297 296 296 295 292 289 289 288 288 288 289 287 289 287 286 289 291 290 296 308 322 329 323 325 329 327 328 326 327 326 325 325 323 323 322 321 319 319 316
299 300 300 302 299 297 298 297 295 294 291 289 288 288 286 285 287 287 289 286 288 287 292 298 301 297 316 301 328 330 331 328 327 325 323 322 321 321 318 317 314 313 313 313
298 298 300 300 300 298 298 298 296 294 294 289 287 286 286 286 285 285 285 288 288 288 292 293 292 292 296 331 331 329 325 324 323 322 321 319 317 314 311 310 308 307 305 304
295 297 299 301 302 299 297 297 299 296 295 294 291 290 288 286 286 288 289 288 286 288 291 289 291 294 301 325 326 324 322 320 318 316 311 303 309 308 305 302 302 300 299 294
293 294 297 299 300 300 301 299 298 297 295 295 294 291 290 289 286 286 288 288 286 288 290 288 289 291 302 308 309 313 314 314 313 312 308 304 301 300 299 298 298 297 295 292
291 291 292 297 299 299 300 301 297 296 296 294 295 292 290 290 288 287 288 287 287 287 289 290 290 293 295 296 298 301 302 302 304 303 301 299 296 293 293 292 293 292 290 289
293 290 293 293 296 298 300 299 299 295 295 295 294 294 291 290 289 287 286 286 286 286 287 288 288 288 290 291 292 293 294 295 294 295 295 294 293 291 289 288 288 287 287 287

GFSNGP_sfc_thetae_078.txt.gz
Theta_e
291 292 292 291 291 291 290 291 288 290 290 295 298 299 302 303 303 303 304 306 308 309 311 313 313 315 315 314 315 317 315 314 316 317 316 316 316 319 321 323 326 329 331 332
288 291 292 290 292 292 292 292 291 292 292 298 300 302 302 302 303 303 306 307 308 309 311 312 313 314 315 317 317 317 316 314 315 315 313 313 314 316 318 319 323 327 329 331
285 290 290 286 290 292 293 295 294 290 295 299 299 301 302 304 305 305 307 307 308 310 312 315 315 317 317 317 318 317 316 315 314 314 312 312 314 314 314 316 322 325 327 331
285 288 278 290 297 297 293 294 297 298 299 300 301 302 303 305 306 304 304 307 309 309 312 313 314 314 315 315 315 315 314 314 313 312 311 311 312 311 311 315 320 323 326 330
284 284 288 291 296 296 292 293 300 298 300 300 302 302 300 304 306 306 307 308 309 311 312 313 312 314 314 315 314 314 311 312 312 312 310 310 310 308 309 311 318 322 326 330
288 282 279 292 298 300 298 289 301 300 299 299 300 294 297 305 306 307 308 308 309 310 310 311 312 313 311 310 310 310 310 311 311 311 310 309 309 309 310 315 318 323 326 331
285 284 288 298 300 302 287 290 301 300 300 301 297 300 304 306 305 307 307 307 307 307 307 309 311 313 311 311 310 311 311 310 309 310 310 309 308 308 309 314 318 321 324 330
289 285 283 300 299 292 297 302 301 300 301 299 301 302 303 305 304 305 304 305 305 304 305 307 308 309 308 307 310 310 309 308 309 309 309 310 309 310 313 317 318 319 321 327
291 292 302 302 300 303 301 300 300 300 301 301 299 300 302 301 302 303 303 303 303 302 303 305 306 307 305 306 307 307 307 306 308 309 310 312 312 313 314 317 317 317 319 327
294 297 298 298 301 301 301 300 300 300 301 301 299 300 300 301 301 301 301 302 301 300 300 302 304 304 305 305 307 307 306 306 307 308 310 313 314 315 315 315 316 316 319 328
293 296 295 296 298 299 300 301 300 301 299 299 299 299 299 299 299 300 299 300 300 299 299 301 303 304 305 306 306 305 305 306 307 309 310 311 313 314 316 318 315 321 327 330
287 294 291 293 297 299 299 298 298 298 296 297 296 295 296 295 296 297 297 298 297 297 298 298 300 301 304 306 306 306 306 307 308 309 311 312 313 315 298 303 305 305 310 325
292 294 294 296 301 301 298 296 297 295 294 294 294 294 294 293 294 296 296 296 296 297 298 299 300 301 304 306 307 307 307 307 309 310 315 315 313 313 309 303 299 298 303 305
297 299 294 297 295 300 298 298 296 294 294 294 293 293 293 292 294 294 295 296 297 297 298 299 300 301 304 306 307 309 311 305 315 319 319 317 316 322 325 324 318 313 300 304
296 296 296 299 300 296 297 296 292 291 291 291 293 292 292 292 292 293 295 296 297 297 298 299 300 302 306 308 311 313 315 316 317 322 324 322 325 324 324 320 313 308 307 301
295 297 300 299 295 295 297 294 291 289 290 290 290 291 291 292 293 294 295 296 294 294 296 298 299 302 306 310 313 314 316 306 308 324 324 326 325 323 321 320 319 318 315 310
292 294 296 296 296 296 295 294 292 291 290 289 288 289 290 291 291 292 293 295 295 295 297 298 301 306 309 310 310 311 319 322 303 327 325 326 326 324 324 323 319 316 314 315
297 300 301 299 299 296 295 294 294 293 291 290 289 288 289 289 289 290 290 292 294 296 300 302 302 302 303 305 307 312 318 322 325 326 326 325 326 326 324 322 319 317 317 309
300 300 301 301 302 298 297 296 294 294 292 289 288 287 289 289 289 289 288 291 291 292 294 296 294 294 297 301 302 310 318 325 323 323 324 313 324 326 322 323 322 321 321 320
299 300 301 301 302 299 297 298 295 293 293 290 288 286 286 286 286 286 288 289 290 290 291 291 291 293 297 303 298 308 318 325 323 324 326 326 326 324 322 313 322 322 321 320
297 298 299 300 301 300 299 298 297 293 293 291 287 286 285 285 285 285 286 285 288 289 288 290 298 311 307 312 306 318 327 325 327 326 326 325 322 321 322 322 320 318 316 314
296 296 298 299 300 301 301 300 298 295 293 292 289 286 285 285 285 285 286 285 286 286 290 295 297 292 311 302 327 329 327 328 327 326 325 324 322 320 319 318 315 312 309 306
295 295 296 298 299 300 301 301 298 295 294 293 289 286 285 285 285 284 283 287 287 287 292 293 291 291 293 327 329 328 327 326 324 322 321 322 320 318 314 311 310 307 300 298
293 293 294 297 300 300 298 300 300 296 296 295 293 290 285 284 286 287 288 287 286 288 290 288 291 292 301 322 323 322 321 319 316 315 311 303 311 309 307 304 300 298 295 292
293 293 294 295 296 297 299 301 301 295 297 295 293 292 289 287 285 286 287 287 286 287 289 288 288 292 301 306 310 312 311 310 308 306 306 304 301 301 299 298 295 294 292 291
294 292 293 294 294 295 297 298 298 295 297 293 293 291 289 287 286 286 287 286 287 286 288 288 288 291 295 297 298 301 302 301 300 298 297 296 295 294 293 292 290 289 289 289
294 291 292 292 293 294 295 296 298 295 296 294 291 292 289 288 286 285 285 285 286 285 286 287 287 287 289 291 292 293 293 294 293 293 292 291 290 290 289 288 287 287 287 286

GFSNGP_sfc_thetae_081.txt.gz
Theta_e
290 291 291 288 288 289 287 287 284 286 287 291 294 296 297 300 300 300 303 304 304 304 306 307 307 308 306 305 307 308 308 307 307 309 310 309 309 309 311 312 312 316 317 318
286 290 290 288 290 290 290 290 290 291 289 297 300 301 299 298 301 300 301 303 305 307 309 309 311 310 310 311 309 308 308 307 308 309 309 308 308 309 309 310 311 313 314 314
279 287 287 282 288 290 291 293 292 287 291 296 295 297 297 298 300 303 304 304 305 306 307 310 309 310 307 308 309 309 310 311 311 310 310 309 309 308 308 308 308 308 311 313
280 283 275 287 295 296 293 294 296 295 297 297 297 299 301 302 300 300 303 304 304 303 304 306 308 308 307 307 307 309 309 310 311 310 309 308 307 306 305 305 304 306 307 310
279 276 285 289 295 294 290 290 297 294 296 297 298 299 298 304 303 303 304 304 303 304 303 303 303 305 306 306 307 309 308 308 309 310 307 306 304 303 303 303 303 305 306 307
278 276 272 288 296 300 298 285 297 297 295 295 296 289 293 300 302 302 302 301 301 301 301 300 302 302 305 306 305 305 306 307 309 309 307 304 304 303 303 303 305 306 307 311
281 280 284 295 298 299 285 286 295 296 295 294 292 294 297 300 300 302 303 301 302 300 298 299 300 300 301 302 302 305 306 306 308 306 305 305 305 305 304 305 305 305 306 310
285 283 281 297 296 289 294 295 296 296 295 294 295 297 298 299 299 300 300 301 301 300 300 300 300 300 299 299 303 304 305 305 305 304 305 306 304 306 306 306 306 306 307 309
286 283 294 295 296 297 297 295 295 295 296 295 294 295 296 296 297 299 299 299 301 299 299 300 299 300 299 301 302 303 303 302 303 304 305 306 305 305 306 307 307 308 310 312
288 293 292 293 295 296 297 296 297 296 295 294 292 293 294 294 295 296 296 297 297 297 297 297 299 300 301 302 303 302 301 303 304 304 304 306 307 308 308 308 308 309 310 311
288 291 292 295 295 296 297 299 298 296 295 294 291 292 292 293 293 294 294 295 296 296 297 297 299 299 300 301 301 301 302 303 304 305 305 305 306 307 309 310 309 309 311 312
286 291 292 292 294 297 297 297 296 294 294 293 292 292 293 292 293 293 293 294 295 296 296 297 298 299 300 301 302 301 301 302 304 305 305 306 306 307 300 298 297 298 300 309
289 294 294 295 297 300 297 296 296 294 293 291 292 292 292 291 292 294 294 294 294 295 296 297 297 298 300 301 302 302 302 303 304 304 306 306 306 305 304 302 297 298 296 299
295 295 293 295 294 299 297 297 296 294 293 292 292 292 291 291 291 292 292 294 295 295 295 297 298 299 301 302 302 302 303 301 304 306 310 309 307 308 309 309 308 306 297 303
294 295 295 297 299 299 299 296 293 292 292 291 291 289 289 289 289 290 293 294 295 295 295 297 297 298 301 302 302 303 304 308 313 317 311 311 312 311 312 314 313 305 307 302
294 294 295 297 297 298 296 294 292 291 292 291 290 289 289 289 289 290 292 293 293 292 294 295 296 298 301 303 304 307 308 303 306 318 319 319 318 317 315 313 315 317 315 310
291 291 293 295 297 297 295 295 294 292 293 291 290 288 289 288 289 290 290 292 291 292 293 295 296 300 304 305 305 305 305 311 302 323 322 320 320 318 319 317 316 316 316 314
296 297 298 298 297 297 297 295 295 294 292 292 291 288 286 286 286 287 288 289 289 291 294 297 299 297 295 296 297 300 303 312 322 324 323 322 320 318 317 317 317 316 316 308
297 297 298 297 298 298 297 295 295 294 293 292 290 285 285 286 286 286 287 287 288 289 291 292 291 291 292 293 294 299 304 312 323 322 321 311 317 318 318 318 318 318 319 319
296 297 297 297 298 298 298 297 297 294 294 293 290 286 285 285 285 285 286 286 288 289 290 289 290 290 292 295 295 301 305 320 322 323 321 319 318 317 317 311 318 317 315 313
295 296 295 296 296 298 298 298 298 293 293 294 287 285 285 285 285 285 285 284 287 287 287 288 290 293 296 294 299 304 310 322 322 322 320 319 318 319 318 316 313 311 308 306
295 294 294 294 295 295 297 297 299 293 294 293 290 286 285 284 285 285 285 284 286 286 289 294 296 292 302 290 309 312 323 323 321 319 319 318 316 313 311 308 305 304 303 302
293 293 293 294 293 294 296 296 297 294 294 293 289 285 284 284 284 283 282 286 286 286 290 293 292 292 294 313 322 323 320 319 320 319 316 314 312 308 304 300 300 299 298 297
293 293 293 294 294 293 291 294 296 295 295 293 291 288 285 284 285 285 285 285 285 287 288 287 292 293 301 316 316 315 314 312 312 310 306 300 303 301 299 297 294 293 293 292
292 292 292 292 291 291 291 294 295 294 293 292 291 290 288 287 285 285 285 286 286 287 288 287 288 292 299 304 303 304 304 306 305 305 303 300 298 297 295 294 292 291 291 290
291 291 292 293 292 292 291 292 294 293 292 290 290 290 288 287 286 286 286 285 286 285 286 287 287 290 293 293 296 297 297 297 298 297 296 294 293 291 291 290 290 289 289 288
291 291 292 292 293 292 291 291 293 292 291 290 289 290 289 287 285 285 285 284 284 284 285 286 286 286 288 290 291 291 291 291 290 292 292 290 289 289 288 288 287 287 287 287

GFSNGP_sfc_thetae_084.txt.gz
Theta_e
288 290 289 288 287 287 284 285 282 285 286 289 293 295 296 297 300 300 300 302 302 301 303 305 307 309 309 308 307 306 309 307 306 305 305 305 306 306 306 307 308 309 309 311
283 289 289 286 287 288 288 288 288 290 288 296 298 298 298 299 300 300 301 303 303 304 306 309 310 311 310 309 309 309 306 305 306 307 306 306 306 306 306 307 307 307 308 310
277 285 286 281 286 289 290 293 292 287 292 297 296 297 297 297 300 301 301 303 304 304 305 306 308 309 309 310 311 309 306 308 308 307 307 307 308 307 306 305 305 305 307 308
278 280 273 284 295 295 292 293 294 293 293 296 295 297 299 302 298 299 301 302 302 304 304 303 307 307 306 307 307 307 306 307 308 309 308 308 307 306 306 305 305 305 306 306
275 272 282 288 293 292 290 290 295 293 295 295 296 295 295 302 300 299 299 301 302 304 303 303 302 303 303 303 303 304 305 306 308 309 308 308 307 307 306 303 302 303 304 305
275 274 271 288 295 299 297 285 295 294 292 292 292 285 289 296 298 299 300 300 300 299 299 298 298 300 298 300 301 301 303 305 306 306 307 307 307 306 305 304 304 305 304 303
281 281 283 293 294 298 283 283 294 295 293 291 289 292 295 296 297 298 299 299 301 301 300 300 299 298 297 298 298 301 302 304 304 305 304 304 305 304 302 302 303 302 303 304
283 282 276 295 293 286 291 295 295 294 293 291 292 292 293 294 294 295 296 297 298 298 299 300 299 298 298 298 300 301 301 301 302 303 304 305 303 302 302 302 301 302 301 302
286 282 291 292 293 295 294 293 294 294 295 295 292 291 294 294 293 293 295 295 296 296 296 297 298 299 297 299 300 300 300 301 301 302 303 303 302 302 302 303 303 302 302 302
285 290 290 292 294 295 296 296 296 298 295 293 292 292 291 290 292 292 294 294 295 294 294 295 296 297 298 299 301 301 300 301 301 301 301 302 302 302 302 302 302 302 303 303
286 289 291 294 294 295 296 298 295 296 294 294 292 291 290 291 291 292 293 293 294 293 294 294 297 298 299 300 300 299 299 299 300 301 301 302 304 304 304 305 304 304 306 307
281 288 288 291 295 296 296 297 296 295 294 293 292 291 292 291 291 291 291 292 293 294 294 295 297 297 299 300 300 299 299 299 300 301 302 303 303 304 299 299 299 297 299 305
288 291 293 294 296 298 297 297 299 296 295 292 292 292 291 290 290 291 291 291 292 293 294 295 296 297 298 300 300 300 299 299 300 300 301 302 302 303 303 301 297 296 296 297
292 294 291 294 292 296 297 299 299 296 296 294 293 293 292 290 290 289 289 290 292 293 293 295 296 296 299 300 300 300 300 298 300 301 302 302 303 302 302 304 304 304 297 297
294 294 294 295 296 297 299 298 296 294 294 293 293 292 291 289 288 289 290 291 292 292 293 295 295 296 298 299 299 299 300 302 304 305 306 306 306 304 303 303 304 306 307 296
294 294 293 294 295 297 296 297 295 293 293 292 292 291 291 290 289 288 289 291 290 289 292 292 293 295 297 298 299 302 303 298 298 305 312 308 307 304 303 304 306 308 309 305
291 290 292 294 294 295 295 296 296 294 294 293 291 291 290 288 287 287 288 289 289 289 290 291 292 296 299 298 296 296 297 299 296 314 316 313 308 307 307 308 310 312 309 308
294 295 296 295 294 294 295 296 296 296 294 292 292 290 287 286 285 285 286 288 288 289 290 292 294 293 292 292 293 294 296 299 307 319 317 317 315 316 314 315 314 314 313 304
296 295 296 296 295 294 295 295 295 296 295 293 290 286 286 286 286 286 286 286 286 286 289 291 291 290 291 291 292 294 298 304 317 317 317 308 317 317 316 317 317 317 318 318
294 295 295 294 295 294 294 295 295 295 294 293 289 286 285 285 285 285 286 285 287 287 288 288 288 289 290 291 291 296 301 309 319 318 318 318 318 317 315 307 315 314 313 312
294 293 293 293 293 293 294 294 294 294 294 293 287 285 284 285 285 285 284 284 286 287 287 288 290 291 294 294 297 301 309 321 319 319 318 317 316 314 313 312 311 310 308 306
292 291 293 294 292 292 293 293 294 294 293 291 287 285 285 284 285 285 286 284 286 286 288 292 296 293 298 292 303 310 321 319 319 317 315 313 311 309 307 307 305 303 302 301
290 291 293 292 292 291 292 292 293 294 291 290 286 285 284 284 284 282 281 285 286 286 289 290 289 287 287 306 318 320 318 316 314 312 309 307 305 304 302 301 300 299 297 296
290 292 291 293 292 291 289 291 292 293 291 291 289 287 285 283 284 285 285 285 285 286 287 286 289 291 298 309 311 310 309 306 304 302 301 297 300 299 297 296 294 293 292 291
289 291 292 292 291 290 290 291 292 292 290 290 289 288 286 285 283 284 285 285 285 286 286 286 287 290 297 299 301 300 302 303 301 299 298 297 296 294 293 293 292 291 290 290
288 288 289 291 292 291 290 290 291 291 289 288 288 288 287 285 284 284 284 284 285 285 285 285 286 288 290 291 293 294 296 295 295 294 293 293 292 291 290 290 289 289 288 288
288 289 288 290 293 293 290 290 291 290 289 288 287 287 287 285 284 283 283 282 282 283 283 284 284 285 286 287 288 289 290 290 290 291 290 290 289 289 288 288 287 287 287 287